GFSFLT2_sfc_thetae_000.txt.gz
Theta_e
334 335 335 336 335 335 335 337 338 340 339 337 336 336 337 335 334 334 333 335 336 336 333 333 334 335 333 333 333 334 334 333
331 332 331 327 327 333 333 334 336 337 336 335 333 333 333 332 331 332 330 330 329 329 332 333 333 332 332 331 331 331 328 328
332 332 331 327 325 329 333 335 335 336 337 333 330 326 326 325 327 330 329 328 327 325 325 327 326 325 327 327 328 326 325 325
326 328 329 328 330 329 328 331 330 330 331 330 327 323 322 324 326 328 326 326 325 325 324 324 320 316 317 320 322 322 322 321
322 324 325 324 325 327 328 327 327 327 325 324 322 321 320 321 320 320 318 321 317 318 316 315 315 315 315 315 316 318 320 322
320 322 322 321 320 326 325 324 325 323 322 322 320 318 317 317 317 318 316 316 314 314 313 313 311 312 313 313 314 314 316 319
316 319 321 320 317 314 314 314 316 315 315 316 320 318 317 317 317 316 315 315 314 312 313 318 316 317 316 315 315 315 316 318
315 316 319 319 316 313 311 310 310 311 313 314 317 315 313 315 315 315 312 312 311 310 308 308 308 310 313 318 319 318 318 318
311 313 315 313 316 314 311 309 309 309 311 312 313 310 307 307 307 309 310 310 310 309 306 306 305 308 307 309 311 312 313 315
307 312 311 310 313 312 312 309 306 307 310 310 310 311 309 307 305 304 303 304 306 299 299 299 299 299 299 300 304 307 305 305
301 306 306 306 306 306 305 306 304 304 309 309 309 309 308 305 306 304 303 303 301 300 299 299 297 298 298 299 298 297 298 302
301 300 302 304 303 302 301 301 302 302 306 308 309 307 307 303 305 304 302 301 300 300 298 299 298 297 300 298 297 297 298 298
301 301 301 301 299 299 298 298 300 300 302 308 307 306 306 302 301 304 303 300 300 299 298 298 297 297 295 296 296 296 297 298
300 301 301 301 299 299 299 298 299 300 301 301 306 305 304 302 301 301 301 300 299 299 299 297 297 297 295 293 291 294 296 297
301 301 301 301 301 299 298 298 298 298 299 299 302 304 304 303 301 300 299 299 298 298 297 296 294 296 296 294 290 288 294 296
300 302 301 302 301 299 298 300 299 301 301 298 300 303 303 302 302 300 299 299 298 298 298 296 295 293 295 298 296 294 290 290
302 302 302 303 303 301 299 298 300 301 297 297 297 299 301 302 301 300 299 299 297 295 295 293 295 293 293 292 292 292 292 290
303 303 303 304 303 302 300 298 300 298 299 298 298 296 296 298 298 297 296 295 294 294 294 291 292 292 291 292 291 289 289 289
302 302 303 305 302 302 302 301 300 299 299 299 298 296 295 295 295 295 294 293 294 293 295 294 292 291 289 290 292 292 293 292
302 303 301 302 301 301 300 300 300 299 297 296 294 295 294 294 293 294 295 295 295 295 295 295 293 291 290 291 292 292 293 292

GFSFLT2_sfc_thetae_003.txt.gz
Theta_e
332 332 334 336 335 336 336 338 339 339 338 337 336 336 336 333 333 333 333 334 335 334 333 331 332 334 332 332 331 332 329 331
329 329 329 327 327 334 334 335 336 336 336 334 333 333 333 331 329 330 329 329 327 327 328 329 329 329 328 327 328 330 326 327
329 329 327 325 323 328 333 335 336 336 334 333 329 324 322 322 327 328 329 327 326 326 325 324 322 320 321 323 324 323 323 324
330 329 328 326 328 327 326 328 329 330 331 327 324 320 319 322 325 327 326 325 324 324 323 322 318 314 315 318 316 318 320 321
327 327 326 326 326 326 324 325 325 325 325 325 322 320 319 319 317 319 316 320 315 316 313 312 310 311 311 312 313 314 316 318
320 322 321 319 323 325 324 324 324 323 322 321 318 316 315 316 316 317 316 314 313 313 312 312 311 312 312 312 313 313 314 316
318 319 320 317 316 314 317 319 323 321 319 319 319 316 314 315 315 315 314 314 313 311 310 311 312 313 313 314 314 315 316 317
314 317 319 316 313 311 311 312 314 313 313 314 318 317 315 315 315 314 313 311 309 308 306 305 305 306 308 310 312 313 314 315
313 314 315 315 314 312 310 309 309 309 311 313 315 313 309 311 312 312 310 308 308 307 302 303 301 304 302 303 303 306 310 308
309 314 312 310 313 312 311 310 307 307 309 309 311 310 306 304 304 306 305 302 307 300 297 298 298 297 298 298 299 302 301 300
303 309 309 308 308 309 307 307 305 304 306 308 308 309 308 306 304 304 302 301 300 298 298 298 296 297 297 297 296 297 297 300
300 303 304 303 302 301 299 300 301 302 303 307 309 307 308 304 304 305 302 300 299 299 298 298 297 297 298 298 296 297 296 296
299 299 299 300 299 298 298 298 298 300 300 303 307 308 306 303 302 303 302 300 300 299 298 296 296 296 294 294 295 295 295 296
299 300 300 299 298 298 298 297 298 298 299 300 305 307 307 304 301 302 303 301 299 299 298 296 296 296 293 291 289 292 294 297
299 299 299 300 300 298 297 297 297 297 298 298 300 304 307 305 302 301 301 301 300 298 297 296 294 294 295 293 288 287 290 293
299 299 299 300 300 299 297 298 298 301 301 300 300 300 303 305 304 300 300 298 296 296 296 295 294 291 292 296 294 292 285 284
299 301 302 302 301 301 300 298 300 301 301 297 298 298 300 302 303 301 298 299 299 298 295 293 292 291 290 290 289 289 290 287
301 301 302 303 302 302 300 298 299 298 299 297 298 296 296 298 299 299 296 296 294 291 292 292 292 291 291 292 290 287 286 285
300 300 300 300 300 300 300 299 298 297 298 298 296 293 292 292 294 293 293 293 294 295 294 294 293 292 290 290 291 290 289 288
299 299 299 300 299 298 297 296 296 297 296 294 293 291 290 292 293 296 296 296 297 297 297 295 295 293 293 291 289 289 289 289

GFSFLT2_sfc_thetae_006.txt.gz
Theta_e
328 330 333 335 335 336 336 337 338 337 337 337 336 336 334 333 332 332 331 331 329 330 330 332 332 330 329 328 328 331 327 327
326 327 327 326 326 333 334 335 336 336 335 333 332 333 332 330 327 329 328 328 327 327 326 326 324 323 324 324 325 326 324 325
326 326 325 322 322 328 333 335 335 335 333 332 328 322 320 319 326 328 327 326 325 325 325 323 322 320 321 321 320 318 321 322
327 326 325 323 325 324 324 326 328 329 329 326 322 319 318 321 323 326 325 324 323 323 321 319 314 311 312 316 313 315 316 318
329 327 326 324 324 323 322 322 323 324 325 323 321 320 317 317 316 317 315 320 313 314 313 312 311 310 311 312 313 314 314 316
326 325 324 322 322 323 322 322 322 322 321 321 319 316 314 315 315 315 315 314 312 311 311 312 312 312 312 312 312 313 314 316
319 319 320 318 320 320 320 321 322 321 320 319 318 315 314 314 314 314 314 313 312 311 309 308 307 308 309 311 311 312 313 314
316 316 318 315 312 312 314 315 317 318 317 317 317 316 314 313 314 313 312 312 310 308 305 304 303 304 306 306 306 306 309 309
313 315 316 314 312 311 309 309 310 310 312 312 313 315 314 313 312 312 312 310 307 306 303 302 300 301 300 301 302 303 307 304
311 315 313 312 312 311 310 308 307 307 308 309 311 313 310 307 307 308 310 306 306 304 297 297 297 297 297 298 298 299 300 299
308 308 310 309 309 310 309 308 307 305 305 307 308 309 309 304 304 304 305 301 301 302 297 297 296 296 296 297 297 297 297 299
303 305 307 305 302 301 300 299 300 302 302 303 307 308 308 306 304 304 302 300 299 298 297 297 297 296 298 298 296 297 297 296
299 300 300 299 299 299 298 299 298 299 300 302 303 306 307 306 304 303 303 301 301 298 297 297 296 296 295 294 294 296 295 296
298 298 298 297 297 297 297 296 297 297 298 299 300 302 305 306 305 303 302 302 299 298 297 295 295 295 293 291 289 291 293 296
297 297 297 298 298 297 297 297 297 297 299 298 300 300 302 305 305 304 302 302 302 300 298 296 295 294 294 292 288 286 289 292
298 299 299 301 300 299 298 296 296 299 299 299 300 300 299 302 305 304 302 301 301 299 298 297 294 292 293 296 293 291 285 284
299 300 301 300 300 299 299 298 298 299 299 298 299 299 297 298 300 301 300 297 297 298 296 294 294 292 290 290 289 290 290 286
299 299 300 300 299 298 297 295 295 296 297 296 297 297 295 295 296 296 295 293 292 292 294 293 290 292 292 291 290 288 287 286
299 298 299 299 298 296 294 294 294 294 295 296 295 293 290 290 291 292 293 293 294 296 294 294 294 294 293 293 293 292 292 290
298 298 298 298 297 294 294 295 294 295 295 294 292 290 290 292 293 294 294 294 294 295 294 295 295 294 292 292 291 291 292 291

GFSFLT2_sfc_thetae_009.txt.gz
Theta_e
335 336 336 336 336 336 336 337 337 337 337 336 335 335 333 332 332 331 331 330 329 329 329 329 328 327 326 325 327 329 334 333
335 335 334 335 335 333 334 335 336 335 334 333 332 332 330 329 326 328 329 328 327 327 326 325 324 324 324 323 322 324 329 330
335 335 333 333 333 333 333 335 336 335 334 332 331 334 331 328 327 327 327 326 325 324 324 322 320 319 320 320 320 324 324 325
335 336 335 332 329 333 334 334 337 339 338 336 335 333 330 328 326 325 325 325 323 323 322 319 317 321 323 321 324 325 326 326
335 336 337 335 332 334 334 334 335 336 337 336 334 332 332 331 329 328 329 324 326 323 324 325 325 324 324 324 322 323 325 326
337 337 336 337 336 335 334 333 333 333 334 334 334 332 330 328 327 327 328 329 327 326 326 324 323 322 321 320 319 320 320 321
337 337 335 333 331 333 333 333 333 334 333 333 331 330 329 327 326 326 327 327 326 325 324 319 316 314 316 315 314 315 317 315
331 330 330 328 328 329 331 331 332 332 333 332 331 330 329 327 326 325 326 326 325 324 319 315 314 313 313 313 312 313 315 314
325 326 328 327 325 323 322 324 324 328 329 330 328 327 327 326 325 325 325 325 324 320 316 315 312 311 310 311 311 311 313 311
322 323 325 326 324 324 323 322 321 320 320 322 323 323 323 324 322 322 323 323 322 319 316 312 309 309 309 309 309 309 309 309
320 322 322 323 321 321 322 321 321 320 319 318 320 320 321 321 320 319 319 318 318 317 314 311 308 308 307 308 309 308 308 307
319 318 319 318 317 315 314 313 313 313 314 314 315 316 318 319 318 317 317 314 314 312 311 310 308 308 305 305 308 308 308 308
314 314 314 312 310 310 310 310 310 310 311 311 311 312 313 315 315 316 316 313 313 313 311 309 307 308 306 306 306 308 308 307
307 306 307 307 307 308 308 308 309 308 309 311 311 310 311 310 312 312 313 312 313 313 310 309 307 308 304 304 300 303 304 305
305 306 307 308 309 309 309 309 309 309 308 308 309 310 310 310 310 310 311 311 310 313 312 309 307 307 307 304 300 297 301 303
309 309 309 308 309 307 306 304 303 305 306 306 307 309 309 308 308 308 309 310 309 310 311 310 308 306 304 303 303 301 297 297
308 308 308 308 307 305 305 304 305 305 305 304 305 306 307 306 305 305 306 307 308 308 308 306 306 304 302 301 299 298 298 294
308 308 307 308 307 305 304 304 303 303 304 303 304 304 304 303 302 303 302 302 301 301 300 301 300 300 299 298 297 295 293 293
307 306 306 306 306 303 303 304 304 303 302 302 301 301 301 300 300 301 301 301 301 301 300 299 298 297 295 294 294 293 293 291
306 305 305 306 306 303 303 303 302 301 301 301 301 299 299 300 301 301 301 301 301 301 300 295 294 293 291 290 289 290 291 291

GFSFLT2_sfc_thetae_012.txt.gz
Theta_e
335 336 337 337 337 337 338 338 337 336 337 336 336 335 333 332 332 331 330 330 329 329 329 328 327 326 325 324 325 327 335 335
336 338 337 339 338 334 336 336 337 335 333 332 331 333 330 329 326 329 328 327 327 326 326 325 324 323 323 322 322 325 331 333
339 338 339 340 338 335 333 335 335 335 335 331 331 337 335 331 327 326 326 325 324 324 322 320 319 320 321 320 322 328 328 329
340 341 340 340 334 338 339 338 340 341 340 340 338 338 336 331 329 325 324 324 322 322 321 321 320 323 325 323 325 325 325 325
339 342 343 340 338 338 337 337 339 340 340 340 339 338 337 335 334 331 331 326 328 326 326 325 325 325 323 324 323 324 322 323
340 342 343 342 338 336 337 335 336 336 338 340 339 336 335 334 331 329 329 327 328 327 326 328 326 323 321 319 318 318 318 320
341 343 343 339 338 337 337 337 336 337 336 336 338 334 333 331 329 327 326 326 325 325 324 323 320 318 316 316 315 316 317 317
342 343 342 335 333 335 335 336 335 335 332 332 336 336 331 328 326 324 323 323 323 323 322 321 318 317 315 316 315 315 315 316
339 340 337 334 331 330 331 331 329 328 328 330 332 332 329 328 325 323 323 324 325 324 323 321 318 316 314 314 314 315 314 314
335 334 332 331 329 329 328 328 328 326 326 326 327 327 328 327 324 323 324 324 322 321 320 318 317 315 313 313 313 313 313 313
332 333 329 327 328 327 327 327 326 325 325 323 323 324 324 324 322 322 324 322 321 320 319 318 316 314 313 313 313 313 313 311
330 328 325 325 326 324 321 320 320 320 319 319 319 319 320 320 320 322 322 321 320 319 318 318 316 315 311 310 312 313 313 312
322 321 317 320 319 315 316 316 316 317 318 318 318 318 318 318 317 318 319 318 319 319 318 317 316 316 312 311 311 313 313 312
314 313 314 314 316 316 316 316 317 317 317 317 316 315 315 314 315 314 315 314 316 317 317 315 315 316 311 309 305 308 311 311
314 315 315 316 315 316 316 316 315 313 312 312 312 312 312 312 312 312 313 313 312 314 314 314 312 315 316 310 304 302 306 310
315 315 314 314 314 313 312 310 309 310 310 311 310 311 310 310 310 311 312 311 311 311 311 312 312 309 312 313 313 311 304 302
315 314 313 313 312 312 311 310 310 310 310 309 309 309 309 308 309 309 310 310 311 311 311 311 311 309 308 308 307 308 308 302
314 313 312 313 313 310 310 309 309 308 307 305 305 306 306 307 307 308 308 308 308 307 307 305 305 304 304 303 301 296 297 297
313 312 311 311 311 309 309 309 308 307 306 304 303 303 304 305 306 307 307 307 307 304 301 298 297 294 293 293 292 291 291 292
312 311 310 309 309 309 309 309 308 305 304 303 302 302 303 305 306 305 305 304 304 303 301 299 295 293 292 292 291 292 292 291

GFSFLT2_sfc_thetae_015.txt.gz
Theta_e
333 334 336 338 338 338 337 337 336 336 336 336 336 334 333 332 331 331 331 330 329 328 328 327 326 326 325 324 325 327 330 332
335 336 335 337 338 336 336 336 336 334 333 332 332 334 332 330 329 329 328 327 326 325 325 324 324 324 323 323 324 326 328 328
336 335 335 335 333 335 333 335 336 335 335 333 333 335 334 333 328 327 326 325 324 324 322 321 323 323 324 323 324 327 326 325
336 339 336 335 331 335 335 333 335 336 337 337 335 336 335 332 330 328 328 327 326 325 325 325 324 324 323 324 324 323 322 322
334 342 341 336 333 332 333 333 334 335 337 338 336 335 335 333 332 331 331 328 327 326 326 326 326 325 323 322 322 321 320 320
334 341 342 339 334 331 331 332 333 332 334 335 334 331 332 331 328 327 327 325 326 325 325 326 326 324 320 319 319 317 316 317
333 338 344 337 336 332 333 333 333 333 334 332 332 330 330 328 327 325 324 324 323 323 323 322 323 321 319 318 317 317 317 317
333 337 343 337 330 332 332 334 332 332 330 329 330 330 330 327 326 324 323 323 322 322 322 322 321 319 318 318 317 316 316 317
333 337 342 335 330 329 329 328 326 327 327 328 327 328 328 327 325 324 323 325 326 324 323 322 320 319 318 316 316 317 316 316
330 336 338 334 328 328 328 327 327 325 326 327 326 326 326 326 323 323 325 325 323 322 320 319 319 318 317 316 316 315 315 315
327 336 335 330 327 326 327 327 326 324 324 323 323 323 323 323 322 323 327 323 324 322 321 321 318 318 317 317 316 315 316 313
328 333 330 327 326 325 322 322 321 322 320 320 321 321 321 321 320 322 322 319 320 321 322 321 321 319 316 315 318 317 316 316
328 326 321 321 320 317 317 317 318 319 320 320 320 319 318 317 316 317 318 316 318 320 319 319 317 320 318 317 317 318 318 316
319 318 318 318 318 318 319 318 318 319 319 318 318 316 315 314 314 313 314 312 316 317 317 315 316 318 314 314 310 312 316 316
317 317 318 317 318 318 317 317 317 316 315 315 315 315 314 313 312 312 313 314 312 315 315 314 311 314 317 312 306 305 310 315
317 317 316 316 317 315 315 313 311 313 314 314 313 313 311 310 310 312 313 312 312 313 311 314 312 309 312 311 314 312 305 304
318 316 316 316 316 315 313 312 312 313 312 311 310 310 310 308 309 311 310 310 310 310 309 309 308 307 306 306 306 306 306 301
317 316 315 315 315 315 312 311 310 309 309 307 307 307 306 307 306 308 309 308 308 308 306 305 302 302 300 298 296 295 295 295
316 315 314 315 313 313 313 311 310 308 307 306 304 303 304 306 306 307 306 307 306 304 302 300 298 297 294 293 293 292 291 290
315 314 313 314 314 313 312 311 309 307 305 303 302 302 304 304 305 306 304 304 302 300 298 296 295 296 295 294 293 294 294 293

GFSFLT2_sfc_thetae_018.txt.gz
Theta_e
331 332 336 338 337 338 338 338 337 338 337 337 336 335 335 333 332 332 330 329 328 327 326 327 327 327 327 327 326 327 323 324
332 333 333 334 333 336 336 337 336 336 335 334 334 334 334 332 333 330 328 326 326 325 325 325 325 325 326 327 325 325 320 322
333 332 333 334 334 334 336 337 336 335 335 333 332 333 332 331 329 330 328 327 327 326 325 325 325 325 326 326 326 319 320 317
334 335 334 333 328 332 335 335 334 335 335 335 335 334 332 331 331 329 330 329 329 328 328 327 325 319 320 324 320 320 317 317
334 340 337 335 333 328 332 332 333 336 338 334 334 332 334 331 330 329 327 328 326 325 325 322 323 321 320 318 318 315 314 314
336 340 340 336 333 331 331 331 331 332 332 334 331 329 330 327 326 323 323 321 321 321 320 322 321 322 319 316 315 314 312 312
332 339 341 338 333 333 333 332 333 331 331 331 330 327 327 327 325 324 322 321 320 319 318 318 319 318 318 316 314 314 314 312
334 337 342 337 330 330 331 332 332 332 328 327 328 327 327 325 323 323 322 321 320 319 317 318 317 317 316 316 314 312 312 312
332 329 341 335 329 329 328 327 323 324 326 326 325 325 324 324 322 322 322 322 321 319 319 317 316 317 315 316 314 313 313 312
327 333 339 334 330 327 326 326 325 324 324 325 324 324 323 322 321 321 322 322 320 319 317 316 315 314 313 314 312 312 312 312
326 336 335 333 328 325 326 325 323 324 322 321 321 321 323 320 318 319 321 318 317 317 315 315 313 313 313 313 313 312 311 312
328 330 329 328 326 324 322 321 321 321 320 320 320 318 319 317 316 317 318 314 314 313 314 314 313 313 315 314 313 314 313 310
326 322 322 320 319 316 317 316 317 318 318 320 318 317 316 314 312 312 311 310 310 311 310 309 309 311 310 310 311 313 313 313
318 318 318 317 317 317 317 316 317 317 318 317 317 315 314 312 312 310 309 308 307 307 308 308 307 309 307 306 303 306 309 311
316 317 317 317 317 316 315 316 315 314 313 313 315 314 312 311 310 308 308 308 306 305 305 305 304 305 306 304 300 298 302 306
317 317 316 316 317 314 314 312 309 312 312 312 311 311 310 308 307 307 306 306 305 305 306 305 304 301 303 303 300 300 297 297
318 317 316 316 315 315 312 310 310 310 309 309 308 307 306 306 305 304 304 305 304 305 304 302 300 298 297 296 295 295 297 294
318 316 315 316 314 313 312 310 309 307 307 305 303 303 303 303 304 303 304 304 302 302 300 299 297 297 296 295 293 292 290 290
315 315 313 314 315 313 312 310 308 305 304 301 300 300 300 300 302 303 302 302 300 299 297 295 295 294 294 292 293 291 292 291
314 313 311 311 312 311 311 309 306 304 302 300 300 299 300 302 301 302 299 299 299 299 298 296 294 295 295 295 293 293 292 291

GFSFLT2_sfc_thetae_021.txt.gz
Theta_e
330 333 336 336 336 336 336 337 337 338 337 337 336 335 335 335 334 332 330 329 327 326 326 327 328 328 328 328 327 327 321 317
324 328 330 330 331 334 334 334 334 334 334 335 334 333 333 333 333 332 330 329 327 326 327 327 327 327 326 326 326 326 315 316
326 326 328 327 328 333 334 335 334 333 333 333 331 329 329 329 330 331 331 330 329 328 328 327 326 325 325 325 325 319 317 314
325 324 326 329 330 330 329 331 331 330 330 329 328 327 328 329 328 330 330 329 329 329 329 328 326 320 317 323 318 317 313 312
328 326 325 325 323 325 328 328 328 329 329 326 325 327 325 322 323 324 322 327 323 325 323 322 320 319 317 315 314 311 310 309
330 328 326 325 323 322 323 323 324 326 326 324 322 322 319 320 317 316 317 317 318 316 316 316 316 317 318 315 312 310 310 309
331 330 327 327 323 323 322 324 323 322 324 323 321 321 319 319 318 317 316 316 314 313 313 314 314 314 314 314 313 311 311 310
332 331 333 329 324 322 322 322 322 323 320 320 322 319 319 319 316 317 316 316 316 315 313 313 313 314 314 314 313 310 309 310
329 327 322 330 323 321 320 321 316 317 318 319 320 319 317 316 316 316 317 317 316 315 314 314 312 313 312 313 312 312 310 309
329 332 322 326 322 318 318 316 316 315 316 317 318 319 317 315 313 313 315 315 314 313 313 312 311 311 310 310 311 311 310 310
326 330 327 324 320 317 317 317 315 315 313 314 315 316 315 311 311 311 312 312 311 311 310 310 309 309 311 311 309 309 309 312
318 320 320 320 316 314 313 313 313 313 312 313 312 312 311 309 308 308 308 306 306 306 305 306 306 306 308 309 310 310 310 309
313 313 311 311 310 308 308 308 309 310 311 311 312 311 310 308 307 306 306 304 304 304 303 303 303 305 303 304 304 306 307 310
310 310 310 310 309 308 309 308 309 309 310 310 311 308 307 306 304 303 304 303 303 302 301 300 300 302 300 301 297 300 302 304
309 310 310 309 309 309 308 308 307 307 307 307 306 306 304 303 303 302 302 302 301 300 300 300 299 300 300 297 294 294 295 301
309 309 309 310 309 307 306 304 303 305 304 304 303 303 302 302 301 301 301 300 299 300 302 299 297 295 296 298 296 296 291 290
309 309 309 309 309 307 305 304 304 304 303 301 300 300 301 301 301 300 300 300 299 299 298 299 298 297 295 294 294 291 291 288
308 308 308 309 309 307 305 303 302 300 299 297 297 298 298 299 300 299 299 297 297 297 298 296 295 295 295 294 293 290 290 289
307 307 306 307 307 306 304 301 300 298 296 295 295 295 295 296 297 298 297 297 296 295 295 296 295 293 291 291 290 291 291 290
306 306 305 306 305 303 302 301 300 298 297 296 295 295 295 295 296 296 298 297 296 295 294 294 293 292 290 291 292 292 293 292

GFSFLT2_sfc_thetae_024.txt.gz
Theta_e
331 333 336 336 336 336 336 338 338 338 337 337 336 335 335 335 333 331 330 327 326 326 328 327 327 328 327 326 325 327 318 315
326 329 329 329 330 334 334 334 334 335 335 334 333 333 333 334 333 332 331 329 328 328 328 327 327 327 326 325 325 324 315 314
324 325 326 327 328 331 334 334 334 333 333 332 330 328 327 328 330 330 332 330 329 330 329 328 326 326 325 325 327 317 315 312
323 324 324 325 329 329 328 330 329 328 329 328 327 325 326 327 328 331 331 330 330 330 330 329 327 319 318 321 316 315 312 309
324 325 326 324 325 325 325 326 326 327 327 327 325 325 325 325 322 323 321 324 322 322 321 319 319 317 317 315 314 312 308 308
323 323 324 322 321 323 325 325 325 326 326 323 320 318 316 316 315 314 315 314 316 314 315 314 313 314 315 315 314 310 309 309
324 324 323 321 321 322 321 322 324 323 322 322 320 318 316 316 316 315 315 314 313 312 312 312 312 313 313 312 312 312 310 309
328 329 329 326 322 321 321 322 319 321 319 319 320 319 316 317 314 315 314 314 315 313 312 312 312 312 313 313 313 312 310 309
329 328 325 326 322 320 320 319 318 318 317 318 318 317 315 314 313 311 312 312 311 311 311 311 310 311 309 311 311 311 311 310
329 329 323 323 324 317 317 314 313 314 315 316 316 316 314 311 309 309 310 309 308 307 307 306 305 305 305 307 308 309 310 309
324 322 320 323 319 315 315 314 312 312 312 312 314 314 312 308 307 307 306 305 305 305 304 303 302 303 304 304 305 306 307 310
321 320 320 320 313 310 311 310 310 310 310 309 309 309 308 306 306 304 305 304 303 302 301 302 301 300 303 304 302 305 306 306
312 311 309 309 309 308 307 306 307 308 309 308 306 306 306 304 302 302 302 301 301 301 301 299 299 300 299 301 300 302 302 302
308 309 308 307 307 306 307 306 307 306 306 305 304 304 303 303 300 300 300 299 299 298 298 297 298 299 297 296 294 298 297 298
307 307 307 307 307 306 306 305 305 304 302 301 302 303 302 300 300 299 298 298 298 297 298 297 296 297 297 296 292 290 291 295
306 307 307 308 307 306 304 302 301 301 300 298 298 300 300 299 300 299 299 299 297 297 299 299 299 295 298 297 296 295 288 287
306 307 307 307 306 305 304 302 301 300 298 297 298 298 299 299 299 298 297 296 295 295 294 293 294 292 291 291 293 291 290 287
304 305 306 306 305 303 301 299 298 296 295 295 295 296 296 296 297 297 296 295 294 293 293 292 292 292 291 290 289 288 287 288
304 304 304 305 303 301 300 299 297 295 295 294 293 294 293 293 294 295 295 295 295 296 294 293 291 290 289 289 290 291 292 290
303 303 303 303 301 300 299 299 297 296 295 294 294 293 293 293 293 295 295 296 295 293 292 290 290 289 288 289 290 293 293 290

GFSFLT2_sfc_thetae_027.txt.gz
Theta_e
332 334 337 338 337 337 337 337 337 337 337 337 336 335 334 334 333 330 328 327 327 328 329 328 328 328 328 327 326 326 314 313
327 328 329 328 329 334 334 335 335 335 335 334 333 333 333 334 333 332 331 329 329 329 329 328 328 328 327 326 326 322 313 311
324 325 326 325 326 330 333 334 334 333 333 332 329 326 325 326 329 330 331 330 330 330 330 329 328 327 325 325 325 314 313 310
322 323 323 324 329 327 326 329 328 327 327 326 326 324 324 326 327 330 331 331 331 330 330 329 326 318 317 320 314 313 312 308
322 322 322 323 324 325 324 325 325 325 326 325 324 325 323 324 322 320 319 322 318 319 317 317 315 315 315 314 314 313 310 308
322 323 323 321 322 323 322 323 325 324 325 325 321 317 315 316 314 313 313 312 312 311 311 311 311 312 312 311 311 311 310 309
321 322 323 323 320 321 322 324 325 325 324 321 319 315 314 314 314 313 312 313 312 311 310 311 310 311 311 310 311 311 310 309
322 322 322 320 319 319 320 321 322 322 321 320 319 317 314 314 313 312 311 311 310 309 308 307 307 308 307 308 308 309 310 309
324 324 324 321 319 318 318 319 319 319 317 317 317 316 313 312 309 308 308 307 305 306 305 304 304 305 304 305 306 307 307 308
325 327 322 322 320 315 314 312 312 312 313 313 312 311 309 306 305 305 305 304 304 303 303 302 301 301 300 300 302 303 305 306
323 322 322 320 315 314 310 309 310 309 309 308 307 306 306 304 303 302 303 302 302 301 301 300 299 299 300 301 300 300 303 307
319 321 321 316 311 309 309 309 307 308 305 304 304 303 303 302 302 302 302 300 300 299 298 299 298 297 302 302 300 301 301 300
312 312 310 311 309 309 306 305 304 304 303 303 302 303 303 301 300 299 299 298 298 298 297 297 297 298 297 298 298 298 297 295
307 307 307 306 306 306 305 304 303 302 301 300 302 301 300 300 299 298 298 298 298 297 296 296 297 296 293 293 290 292 294 295
306 305 306 306 306 305 304 304 303 300 298 298 299 299 299 299 299 298 297 297 296 295 295 294 293 295 294 291 287 285 290 292
305 306 305 306 305 304 303 301 300 299 297 296 297 298 298 298 298 298 296 296 294 294 295 293 292 290 292 294 292 290 288 285
304 305 305 305 304 304 302 300 300 298 297 296 296 296 297 297 297 296 295 294 293 293 292 291 292 291 289 289 288 289 287 288
302 304 304 304 303 302 301 298 297 295 295 294 294 294 294 294 295 295 294 294 293 292 292 291 290 289 289 288 289 289 288 288
302 303 303 303 301 300 299 297 296 295 295 293 292 293 292 292 293 294 293 293 293 293 291 290 289 288 287 287 287 288 292 290
300 302 301 301 300 299 298 298 296 296 295 293 292 293 292 292 291 294 294 294 293 292 290 289 288 288 286 286 287 288 289 289

GFSFLT2_sfc_thetae_030.txt.gz
Theta_e
333 336 339 340 339 338 337 337 337 337 337 337 336 334 334 333 332 331 330 330 331 332 331 331 331 330 329 328 327 325 313 312
327 330 330 329 331 335 335 335 335 335 335 334 332 332 332 332 331 330 332 332 332 332 332 331 330 330 328 327 326 320 313 311
324 325 325 324 326 331 334 335 334 333 333 332 329 324 324 325 329 331 332 332 332 331 331 329 328 323 324 325 322 314 313 311
322 322 322 323 327 326 326 329 328 327 327 326 324 323 323 326 326 328 328 327 325 326 324 323 318 314 314 317 314 314 313 311
322 322 321 321 323 323 323 324 324 324 325 324 323 323 322 322 320 317 315 317 313 314 313 312 311 311 312 311 311 312 311 311
321 321 320 320 321 322 321 322 323 323 325 325 321 319 315 315 312 312 312 312 311 310 310 310 309 310 309 308 309 309 310 310
320 321 321 321 320 321 320 321 323 323 324 322 319 314 313 313 312 311 310 310 308 307 307 306 305 306 306 306 306 307 308 308
320 320 322 321 319 319 319 321 321 322 320 318 317 315 313 311 308 307 306 305 305 305 304 304 303 304 303 304 305 305 305 306
321 322 321 319 316 316 318 317 318 317 314 314 313 311 307 305 304 303 303 303 303 303 302 303 301 302 301 302 303 303 304 305
324 324 321 319 318 317 314 313 313 311 309 307 306 305 304 302 301 301 301 301 301 300 300 300 299 298 298 298 299 301 303 305
321 322 319 317 314 313 310 309 307 305 304 303 303 303 303 301 300 300 301 300 299 299 298 298 297 298 300 301 300 300 301 301
322 318 316 314 313 311 308 305 303 302 301 301 301 303 304 303 302 299 300 299 299 298 297 298 297 297 300 299 298 299 298 296
318 314 314 314 311 306 303 302 300 300 300 301 303 302 301 299 299 299 298 297 297 297 296 296 296 296 294 294 295 297 294 294
314 312 312 308 306 304 303 301 299 298 298 299 299 299 300 299 298 297 296 295 294 295 294 293 294 294 291 290 287 290 292 294
305 305 305 305 305 304 302 301 300 297 296 296 297 299 299 298 297 296 295 295 294 293 292 291 290 292 292 290 286 284 288 291
303 304 304 304 304 302 301 299 298 297 296 295 296 297 297 297 297 296 295 294 293 293 294 292 291 289 290 293 291 290 286 285
302 304 304 304 303 302 301 298 297 296 295 295 295 295 296 296 296 295 294 294 293 292 291 291 291 289 288 288 288 288 289 287
304 305 303 303 303 302 300 297 296 295 295 294 293 294 294 294 294 294 293 293 292 292 291 290 289 288 288 288 287 287 287 287
303 302 301 301 300 299 298 297 296 296 295 294 292 292 292 292 291 293 293 293 292 292 291 289 288 287 286 286 286 287 288 287
301 301 301 300 299 298 298 297 296 295 294 293 292 291 292 292 291 291 292 293 292 293 290 289 289 288 286 285 286 287 287 287

GFSFLT2_sfc_thetae_033.txt.gz
Theta_e
342 343 343 340 340 339 338 337 338 338 338 337 336 334 334 334 333 333 332 332 332 332 332 332 331 329 328 327 327 324 324 322
340 341 342 342 340 336 335 335 335 335 335 334 332 332 332 333 330 332 333 333 332 332 332 331 327 326 326 326 323 323 324 323
336 336 338 337 336 335 334 335 334 334 334 332 330 332 332 332 330 332 332 329 329 328 327 324 323 323 323 323 323 323 323 323
331 333 332 332 331 334 335 334 333 334 333 334 333 333 333 332 330 327 325 324 323 323 321 322 322 320 319 319 318 319 319 320
328 330 330 330 329 331 331 333 333 333 333 333 334 333 334 333 329 325 325 322 321 321 320 317 317 316 315 315 314 315 315 315
327 328 328 328 329 330 330 331 332 333 334 334 333 330 326 323 322 321 320 319 318 317 315 316 315 314 313 313 313 312 311 311
326 328 327 327 327 329 329 330 331 332 332 329 327 324 323 321 318 316 315 315 315 314 314 313 312 312 311 310 310 310 311 311
326 327 328 328 327 327 329 330 330 331 327 326 326 324 320 316 314 312 311 312 312 310 310 310 309 309 308 309 309 310 311 312
326 326 326 324 324 322 320 320 323 321 321 319 318 316 314 313 311 310 309 310 310 309 309 309 308 308 308 309 309 309 310 311
327 325 322 321 319 317 316 315 315 315 315 313 313 312 312 311 309 308 309 309 309 308 307 306 306 307 305 307 306 306 309 307
325 324 321 321 315 313 311 311 311 310 310 310 310 309 309 309 308 308 308 307 306 305 304 305 304 303 302 305 303 302 309 305
323 321 318 314 313 312 310 308 307 309 309 308 309 309 309 309 307 306 305 304 303 304 303 303 304 301 299 300 301 303 306 303
322 316 315 316 313 309 308 308 307 307 308 308 308 308 308 307 305 305 304 302 302 303 302 300 300 301 298 297 300 306 302 302
319 322 317 316 313 313 312 309 308 307 306 306 307 307 306 305 305 304 303 302 302 302 301 298 299 300 295 296 292 294 300 298
320 317 317 315 313 311 309 308 306 305 305 305 306 306 305 305 304 305 304 304 301 302 301 297 295 298 297 294 290 288 291 296
315 314 313 312 312 311 310 310 308 307 306 306 305 305 305 304 304 304 304 304 301 301 301 299 298 294 296 297 296 294 287 286
312 312 311 311 311 311 311 308 307 306 306 304 305 304 304 303 303 303 303 302 301 301 300 299 299 296 294 294 293 293 292 288
311 312 310 311 310 310 309 308 306 306 306 305 305 304 303 303 302 303 303 302 301 301 300 299 298 297 296 294 292 290 289 287
311 311 309 309 309 309 308 308 307 306 305 304 303 303 302 303 302 301 301 301 301 300 300 299 298 296 295 294 294 293 293 291
310 309 307 307 307 307 308 307 306 304 303 302 302 301 301 302 301 300 299 299 300 300 299 298 299 297 296 295 294 294 294 292

GFSFLT2_sfc_thetae_036.txt.gz
Theta_e
344 345 344 341 341 340 338 338 339 339 338 338 336 335 335 334 334 333 333 333 333 332 331 330 328 327 326 325 324 325 326 325
340 340 340 340 341 337 336 336 336 336 336 334 333 333 334 332 334 333 332 331 331 329 327 325 325 325 324 324 324 327 324 323
338 337 338 337 335 336 334 335 335 334 334 332 330 334 334 333 331 331 328 328 327 325 324 324 325 324 322 321 324 322 322 321
336 336 335 334 330 334 334 332 335 336 335 336 337 338 337 333 330 327 325 325 324 323 323 325 324 321 321 323 319 319 319 318
331 334 334 331 330 332 332 335 336 337 338 338 338 340 340 339 333 331 331 326 327 326 323 321 321 320 319 319 318 318 317 316
329 331 332 332 331 332 334 335 336 338 339 340 340 337 334 334 330 329 328 325 324 322 321 320 320 319 318 317 317 316 315 315
329 330 330 331 332 333 336 338 337 338 339 336 335 334 331 329 327 325 323 323 321 319 318 317 317 317 316 315 314 315 315 315
332 331 332 332 333 334 335 336 336 336 333 331 329 333 329 325 323 320 319 318 317 317 316 315 315 314 313 313 313 313 312 313
331 333 334 332 330 330 331 329 328 328 328 327 326 326 324 322 319 316 315 317 317 315 314 312 311 310 309 309 310 309 309 311
331 329 329 327 327 326 325 319 320 322 323 321 320 318 317 317 316 315 315 314 311 309 308 307 307 307 306 305 307 307 306 311
330 330 328 327 327 317 316 315 315 316 316 316 315 315 315 315 314 313 312 310 309 307 306 306 305 305 303 304 305 304 305 307
330 331 328 321 317 319 313 312 312 312 312 312 313 314 315 314 311 310 309 307 306 306 305 305 304 304 301 302 304 305 306 307
329 326 319 320 317 316 313 310 311 313 314 314 315 314 312 311 309 309 308 306 305 305 304 303 302 304 301 300 301 304 306 304
328 327 326 324 323 320 319 317 316 315 314 314 314 312 310 308 308 307 307 305 305 305 305 302 302 302 299 298 294 297 301 301
328 330 328 325 321 319 318 316 314 313 313 313 312 311 310 310 309 307 307 307 304 305 304 303 299 301 301 297 293 291 294 298
328 326 324 321 320 318 316 316 313 315 314 314 312 311 310 308 307 308 307 307 306 305 303 303 301 298 299 299 299 297 291 290
323 321 319 319 318 319 318 315 315 314 314 310 311 312 310 308 308 308 307 306 306 305 304 303 301 298 297 296 294 293 293 289
318 317 316 317 318 317 317 314 312 311 310 308 307 308 308 308 307 308 308 307 306 305 304 301 301 300 297 295 293 291 290 289
318 317 315 317 317 316 314 311 309 307 307 306 306 306 306 306 307 306 306 306 305 305 303 301 301 299 297 295 294 293 292 291
316 316 314 314 314 311 310 309 310 309 308 307 306 305 304 304 303 303 302 302 303 303 302 301 300 299 297 296 294 293 293 292

GFSFLT2_sfc_thetae_039.txt.gz
Theta_e
342 344 344 342 341 339 338 339 339 339 339 337 336 336 336 335 334 333 333 333 332 331 329 328 327 326 325 326 327 328 326 323
340 340 339 340 339 337 337 337 337 337 336 334 333 333 333 334 335 333 331 331 330 327 326 325 325 324 324 324 325 326 322 321
335 335 336 335 334 335 335 337 336 335 333 333 330 331 332 333 330 329 328 328 326 324 325 324 325 324 323 322 323 321 320 319
334 335 334 334 328 332 332 332 332 334 334 334 335 335 335 332 329 328 327 326 325 324 325 324 325 323 322 325 321 321 320 319
332 334 334 331 331 330 331 333 335 336 337 336 338 336 336 334 332 329 331 326 327 325 325 323 323 322 321 321 320 320 319 318
329 331 331 331 330 330 332 333 334 335 337 338 337 334 335 333 330 330 328 326 326 325 323 323 322 321 320 319 318 317 316 316
327 329 331 333 333 335 335 336 340 340 339 337 336 333 333 331 330 327 325 324 322 321 320 319 319 319 318 316 315 315 315 313
329 329 332 333 335 336 339 341 339 336 335 333 332 332 333 330 328 324 321 320 319 318 317 315 314 314 313 313 311 311 312 312
332 333 334 334 333 332 330 330 330 331 330 329 329 329 327 325 320 317 317 318 318 315 313 312 311 310 310 309 308 308 309 308
333 333 332 330 329 327 325 325 325 324 325 325 324 322 321 321 317 315 316 315 313 311 309 308 308 307 307 306 305 306 308 307
331 332 329 327 323 320 318 318 319 320 320 318 317 316 317 317 316 313 313 311 310 309 307 307 305 305 304 305 305 305 305 306
332 330 330 327 325 323 317 315 315 317 315 314 315 316 317 316 313 313 311 310 308 307 306 306 305 304 303 303 305 304 305 308
329 328 328 326 322 320 316 315 313 314 314 317 317 317 314 313 312 311 310 308 307 308 306 305 304 305 301 301 301 305 305 304
330 329 327 329 322 324 323 319 317 318 317 318 318 315 313 311 311 309 309 307 307 307 306 304 303 303 299 298 295 297 301 302
330 329 330 328 328 323 321 320 319 316 316 316 315 313 312 311 310 309 308 308 306 306 306 304 300 302 302 297 293 291 295 298
330 328 328 325 323 320 318 315 314 316 316 316 315 313 311 310 308 309 309 308 307 306 305 305 303 299 300 299 300 297 291 289
328 327 324 322 321 320 319 317 318 318 317 314 313 312 311 309 309 309 308 307 307 307 307 305 303 300 299 297 297 296 295 291
324 322 320 321 320 320 319 317 314 312 313 310 309 308 308 309 308 308 308 306 306 306 306 303 302 302 300 298 296 293 292 291
320 319 317 319 319 319 317 315 312 309 309 308 306 306 306 307 307 305 303 303 302 303 303 304 302 301 299 297 298 296 295 293
319 318 316 318 317 316 314 311 309 309 308 307 306 305 304 304 303 302 301 301 301 302 302 303 302 301 299 298 296 296 296 294

GFSFLT2_sfc_thetae_042.txt.gz
Theta_e
340 341 342 340 339 338 338 339 339 338 337 336 336 336 336 336 336 335 334 333 332 329 328 328 327 325 325 325 326 326 320 317
337 340 339 338 335 336 336 336 336 336 335 334 333 333 334 335 334 333 332 331 329 326 327 326 326 324 323 323 324 325 316 314
336 336 336 335 334 335 336 336 335 334 333 333 330 328 330 332 330 330 330 329 328 326 325 324 326 325 324 322 325 316 316 315
333 334 334 331 328 331 331 331 330 330 330 330 331 333 331 330 327 328 329 327 326 325 324 325 325 319 318 322 316 317 315 314
331 333 332 328 328 329 329 330 331 335 335 334 335 335 332 330 326 323 325 327 325 323 322 320 320 318 317 316 316 314 312 312
330 330 332 331 329 329 331 332 334 334 335 335 334 332 331 329 327 327 325 324 321 320 319 318 317 317 316 315 314 312 310 310
327 329 331 331 333 334 333 332 333 333 335 333 332 331 330 329 326 324 321 319 317 316 315 313 313 312 313 312 308 307 308 309
326 328 332 334 334 334 332 333 334 333 331 331 331 330 330 327 321 317 316 316 315 314 311 311 309 309 307 309 307 305 305 307
327 330 334 331 330 328 326 326 327 327 326 328 327 327 322 318 317 316 315 314 312 310 308 307 306 306 304 305 304 302 303 305
329 332 331 329 327 325 324 324 323 322 323 323 322 320 319 317 315 313 313 312 308 307 306 303 302 302 300 302 302 302 302 302
331 329 325 324 323 322 320 321 319 320 321 317 316 316 317 315 313 310 310 309 308 305 303 302 300 300 300 299 300 301 300 302
329 326 325 324 323 322 321 319 318 317 314 314 315 315 316 314 311 310 309 306 305 304 303 303 302 301 301 300 299 299 300 301
328 325 325 323 321 318 317 315 314 314 313 314 316 316 313 310 310 308 307 305 304 304 302 301 300 301 297 297 297 298 297 298
327 326 325 325 323 321 320 317 314 314 314 316 317 314 311 310 308 307 306 304 304 304 302 300 299 300 295 295 290 293 296 297
327 326 325 326 322 324 322 318 316 315 314 314 314 313 311 309 308 306 305 304 302 303 302 301 297 298 298 295 290 287 291 293
329 328 327 327 326 320 317 314 312 313 313 314 312 312 311 309 307 306 305 305 303 303 302 301 299 295 297 298 295 293 287 287
329 328 325 324 321 320 317 316 315 314 314 313 312 312 311 309 308 306 305 304 303 302 302 300 299 297 295 294 294 293 292 288
327 324 322 320 320 320 318 317 314 312 312 310 310 308 306 307 307 305 303 302 300 299 299 297 297 297 296 295 293 292 290 288
324 321 318 319 319 319 318 315 312 308 308 307 305 304 304 303 302 300 300 299 299 298 297 297 297 296 295 295 295 293 293 291
320 318 316 317 319 317 316 312 309 308 309 306 303 302 301 301 300 299 299 298 297 297 296 296 296 296 294 295 295 295 294 291

GFSFLT2_sfc_thetae_045.txt.gz
Theta_e
336 339 340 339 338 338 337 337 337 336 336 336 336 335 336 337 336 335 334 332 330 329 328 327 327 325 327 326 326 326 312 314
335 336 335 333 334 335 335 335 334 334 334 334 333 334 335 334 333 333 333 331 329 326 327 325 325 324 325 326 323 322 312 311
334 334 332 332 332 335 334 335 333 332 332 332 329 328 329 330 329 331 331 329 327 327 325 324 326 324 326 326 321 313 312 311
331 333 330 329 331 330 329 330 327 326 327 327 325 326 327 326 327 329 329 328 326 326 324 325 322 315 315 319 312 311 310 310
331 332 327 324 327 326 327 326 326 326 326 326 328 329 327 325 321 322 321 326 320 320 317 315 313 313 314 311 311 309 306 308
326 326 323 324 326 325 326 326 328 329 331 331 330 328 326 326 323 324 318 316 313 313 310 310 310 309 309 309 306 304 305 305
323 325 323 324 324 328 329 329 330 330 329 329 329 327 324 321 315 314 313 312 311 309 306 308 306 306 304 306 303 302 302 304
321 324 324 330 328 328 329 329 328 327 326 325 326 323 317 315 313 312 312 310 308 305 304 303 302 303 302 303 302 300 300 301
321 324 329 325 323 323 323 325 324 324 323 323 322 317 315 313 312 309 309 309 305 304 302 301 300 301 299 300 300 300 300 300
323 329 324 322 320 319 319 318 320 320 319 318 317 316 314 311 309 307 307 305 304 302 300 300 298 298 297 296 298 298 299 298
324 323 320 320 319 317 317 316 316 316 314 312 313 313 313 311 306 304 306 304 302 301 300 299 297 298 298 296 296 297 296 300
322 321 319 318 317 317 315 314 313 313 310 309 310 311 311 307 306 304 304 302 300 300 299 299 298 297 300 297 295 296 296 294
321 319 319 319 315 313 311 309 309 308 308 310 311 311 308 307 305 304 302 301 299 300 299 297 297 297 294 293 294 295 294 294
321 319 319 319 317 314 313 309 308 308 308 309 311 310 307 305 303 302 301 300 300 299 298 296 296 296 293 291 289 291 292 294
321 321 320 321 320 316 314 310 308 307 307 308 308 308 307 305 304 302 301 300 299 298 298 297 294 295 295 293 288 285 288 291
323 323 321 322 321 317 312 308 307 307 308 308 306 307 306 305 303 302 301 300 299 298 300 296 296 293 294 297 292 290 286 285
323 323 322 322 322 317 313 308 308 309 309 308 307 308 307 305 303 301 300 299 297 296 294 294 294 293 292 292 291 291 290 287
323 323 322 320 317 313 311 310 309 309 310 309 308 307 304 301 300 297 297 296 295 294 294 293 293 293 293 293 291 291 291 291
322 322 317 315 312 311 311 307 306 305 306 305 303 300 298 298 296 296 295 295 294 294 293 292 292 291 291 293 295 293 293 293
320 317 316 314 312 311 308 305 303 303 303 302 301 300 299 296 296 295 294 294 294 293 293 292 292 291 291 292 293 294 292 293

GFSFLT2_sfc_thetae_048.txt.gz
Theta_e
331 333 337 339 337 337 336 336 336 336 336 336 336 336 336 336 336 335 333 332 331 330 328 327 328 327 328 325 324 322 311 313
328 332 334 334 334 335 334 334 334 334 334 334 333 334 334 334 334 334 333 331 329 328 326 326 326 326 327 326 322 319 309 311
328 330 331 331 332 333 334 334 333 332 333 332 330 328 327 325 329 331 331 328 326 327 328 326 323 322 324 323 318 309 308 311
330 330 330 330 331 329 328 328 326 326 326 325 324 325 326 325 328 330 329 327 326 326 324 321 317 312 312 315 309 306 305 308
330 329 328 326 327 326 325 323 323 324 324 323 324 326 325 322 321 320 319 321 314 313 311 310 308 307 307 306 303 302 301 303
330 328 324 321 324 324 323 323 324 325 327 327 325 325 324 321 318 316 314 312 310 307 307 306 304 304 304 304 301 299 299 302
329 326 321 323 322 322 324 326 328 327 326 327 327 324 319 315 314 312 310 309 306 304 303 302 302 301 300 301 300 298 298 300
327 322 320 325 325 326 326 327 326 324 323 322 323 319 314 312 310 309 307 306 304 302 299 299 299 299 299 299 299 298 299 298
322 324 326 325 324 326 324 324 323 321 321 319 316 315 312 310 308 307 306 303 302 300 299 299 298 299 298 298 298 298 298 297
326 328 322 321 319 320 319 319 319 319 318 316 315 314 311 308 306 305 305 303 301 299 298 298 297 297 295 294 295 297 296 297
323 322 320 319 318 316 315 316 316 315 313 312 312 312 310 306 305 304 303 301 300 300 298 297 296 296 297 295 294 295 294 297
322 320 319 317 316 314 312 312 312 311 309 309 310 310 309 305 304 302 301 300 299 298 297 297 296 296 299 296 294 294 293 293
320 318 316 316 314 311 310 309 309 308 308 309 310 309 308 305 303 301 300 299 298 299 297 296 295 295 292 292 292 293 292 292
319 318 317 316 315 312 312 309 308 307 307 308 309 306 305 304 302 300 300 299 298 297 296 295 295 295 292 290 288 291 291 293
318 318 317 317 316 313 309 307 306 304 304 305 308 306 305 304 302 300 300 299 297 296 296 295 293 293 293 292 287 285 286 290
319 318 318 318 317 313 309 306 305 305 305 306 306 305 305 304 302 300 300 299 297 297 296 293 293 290 292 295 291 290 286 286
320 319 318 319 318 315 311 306 306 306 306 306 304 304 304 302 301 299 297 296 295 294 292 291 291 290 289 290 289 289 288 285
320 320 319 320 319 315 312 308 306 306 305 304 303 302 301 300 298 296 295 295 294 293 291 291 290 290 290 290 290 289 288 290
320 320 320 320 318 315 311 308 307 307 307 305 300 299 299 298 297 295 295 295 293 292 291 290 290 289 289 290 292 291 292 293
321 320 319 317 314 311 308 306 305 305 304 303 301 299 298 297 297 296 295 294 292 292 291 291 290 289 289 289 290 290 291 290

GFSFLT2_sfc_thetae_051.txt.gz
Theta_e
331 333 335 337 337 336 336 337 337 337 337 336 336 335 335 335 335 334 333 332 331 330 330 330 329 328 327 324 323 320 311 313
328 332 333 333 332 334 334 335 335 336 336 335 334 334 335 335 334 333 332 330 330 330 328 327 328 326 325 323 319 316 309 310
323 326 331 331 331 332 334 335 334 333 333 332 329 326 326 324 330 331 330 329 330 328 326 323 321 321 322 319 312 304 307 309
319 320 327 330 331 329 328 329 328 327 325 325 324 324 322 326 328 330 329 328 326 323 321 317 311 307 307 308 302 301 302 305
322 321 326 327 327 326 324 323 323 323 323 323 324 325 321 321 319 318 315 316 310 309 307 305 303 304 303 300 299 298 298 302
328 328 327 323 324 323 322 321 322 322 322 323 323 323 319 317 318 314 310 308 305 305 304 302 301 301 301 300 298 297 297 298
328 326 325 322 322 320 322 322 323 325 326 327 325 323 320 315 311 310 308 305 303 301 300 300 299 298 298 298 297 297 297 297
328 325 322 321 321 321 322 325 326 324 322 324 323 317 313 310 308 306 304 302 301 299 298 298 297 297 297 298 297 297 296 296
327 323 320 322 322 323 324 324 322 321 319 318 315 313 311 309 307 306 303 301 300 299 298 297 297 298 295 296 296 296 296 296
324 323 322 321 321 320 320 319 319 318 316 314 313 312 310 307 306 305 302 300 299 298 297 296 296 296 294 294 294 295 295 294
322 322 320 319 317 316 316 316 316 315 313 312 311 310 308 305 304 303 301 299 299 299 297 296 295 295 295 293 294 293 293 295
322 320 318 317 315 314 313 313 312 311 310 310 310 308 306 304 302 301 300 298 298 297 296 296 295 294 297 295 293 292 292 291
319 317 316 317 314 311 309 309 309 307 307 308 309 307 306 303 301 300 298 298 298 297 296 295 294 294 292 292 291 292 291 291
318 318 316 317 316 311 311 309 308 307 307 307 308 307 305 303 300 299 298 298 297 296 295 294 294 293 291 288 287 289 290 292
319 318 317 316 315 311 307 306 305 304 304 305 307 305 305 303 301 299 298 298 296 295 295 294 291 292 293 290 285 283 286 289
320 319 317 316 315 311 308 306 304 304 304 304 306 305 303 302 300 299 298 298 296 295 294 292 293 289 290 293 290 289 285 284
318 318 317 317 315 313 309 306 305 304 304 304 304 302 302 301 300 299 297 296 293 292 292 291 291 289 288 288 288 287 286 285
317 317 317 318 316 314 310 307 305 304 303 303 301 300 299 299 298 297 297 296 293 291 291 290 289 288 289 288 288 288 287 286
319 317 317 317 317 315 312 308 306 305 304 304 299 297 295 296 297 297 296 295 294 292 291 290 290 288 289 289 290 289 290 290
320 318 318 317 317 316 313 309 307 306 305 302 299 298 297 296 298 297 296 295 295 294 291 289 288 288 288 287 288 288 288 289

GFSFLT2_sfc_thetae_057.txt.gz
Theta_e
324 324 326 327 331 337 337 337 338 337 337 337 337 336 335 334 334 334 334 333 332 331 331 329 327 325 323 322 322 320 320 321
324 321 320 323 328 334 336 336 336 336 336 335 334 334 334 334 332 333 333 333 331 328 328 326 322 320 319 317 316 318 317 318
323 320 321 323 331 334 335 336 335 334 334 333 330 329 329 327 331 331 330 329 327 324 322 320 319 317 314 313 316 316 316 317
321 321 319 318 319 326 332 333 331 332 331 330 329 329 328 326 329 328 326 325 323 319 316 313 312 309 308 309 309 310 309 309
318 319 323 326 326 328 331 330 330 330 329 329 328 329 328 327 325 321 319 316 312 312 309 309 310 309 308 308 308 307 308 308
324 325 327 327 328 328 329 328 328 327 328 330 328 326 326 324 319 316 313 312 311 310 309 310 308 308 308 308 307 306 306 307
322 326 329 328 327 327 327 327 326 329 329 330 328 325 325 321 316 314 311 311 309 308 308 307 307 307 307 306 306 306 307 308
322 325 329 329 327 327 326 328 328 328 327 329 329 324 323 317 314 312 310 309 309 308 308 307 306 307 306 306 306 305 306 309
324 326 328 329 327 326 326 326 327 326 327 330 330 326 323 318 314 311 309 309 308 308 308 308 306 306 305 306 306 305 305 306
326 328 328 329 327 326 326 327 328 329 329 331 329 326 321 317 313 310 309 309 307 307 308 307 306 306 306 305 305 305 303 304
328 330 328 327 327 326 327 328 329 330 328 326 324 322 319 316 312 309 310 308 309 308 307 307 306 306 306 307 306 305 303 302
329 329 328 326 326 325 326 327 328 327 325 323 321 320 316 314 311 308 310 307 308 308 307 307 306 307 303 304 305 305 303 303
327 327 326 324 322 320 320 321 323 323 321 321 319 317 314 313 309 308 309 308 308 308 306 306 305 306 304 303 303 303 302 302
325 326 325 324 324 323 323 322 322 323 321 319 318 315 314 312 308 309 308 307 307 307 307 305 305 304 300 299 296 298 300 302
324 325 325 324 324 321 319 319 318 317 317 318 316 314 312 310 309 309 308 308 307 307 306 305 302 302 301 297 293 292 295 299
325 325 325 324 322 321 319 319 319 318 317 317 316 311 309 308 309 308 308 307 306 306 304 303 301 297 299 300 300 297 292 291
325 325 324 324 322 322 321 320 322 316 315 315 314 313 311 308 308 307 307 307 305 304 302 301 300 297 297 297 297 298 297 293
324 324 323 323 322 321 320 320 317 313 313 312 312 311 309 309 307 307 307 305 303 300 299 297 296 299 297 297 296 295 294 294
323 323 323 323 322 320 318 317 317 315 314 310 311 309 307 307 307 305 303 302 301 298 296 296 296 297 298 298 298 297 297 296
322 322 323 322 321 320 317 316 317 317 313 310 310 310 308 306 304 303 301 300 298 297 296 295 296 299 298 297 297 297 297 295

GFSFLT2_sfc_thetae_060.txt.gz
Theta_e
323 323 326 327 329 330 332 337 338 338 337 337 337 336 335 336 335 335 334 333 332 330 330 329 326 324 323 322 322 322 321 321
321 318 319 320 321 328 333 336 336 336 336 335 334 334 334 334 333 333 333 332 331 327 327 325 323 320 319 318 320 320 318 318
321 319 320 320 322 329 333 335 335 334 333 332 328 327 328 329 331 333 332 330 328 324 322 319 318 316 315 317 318 316 315 316
321 323 321 320 323 327 332 332 332 330 329 330 327 329 328 329 329 329 328 326 323 319 317 318 318 315 313 314 312 312 311 312
320 320 319 323 326 325 327 330 331 330 331 329 330 329 330 328 325 323 322 322 316 316 317 317 316 314 312 312 312 311 311 310
316 318 322 322 322 321 323 325 328 327 328 331 330 328 329 328 325 324 322 321 319 318 317 315 313 312 312 311 311 310 310 310
319 326 326 325 325 326 327 327 327 328 329 330 330 328 328 327 325 323 321 320 318 316 314 313 312 311 311 310 309 309 310 313
322 323 326 327 327 330 328 327 328 329 329 330 331 329 329 327 324 321 320 319 318 316 314 312 311 311 310 309 309 308 310 312
324 325 329 328 327 329 328 327 327 326 329 334 330 329 329 327 323 320 319 318 317 315 313 312 311 310 308 309 310 309 309 309
325 325 328 330 328 327 327 327 327 327 330 334 336 331 330 326 321 319 318 316 315 314 314 312 311 310 311 312 311 310 309 309
324 325 326 332 331 328 329 329 328 329 332 333 336 335 330 326 323 320 318 316 313 313 313 313 311 311 311 312 312 311 307 306
327 327 329 334 333 331 328 328 328 331 332 334 335 332 329 327 323 319 317 315 315 314 313 312 313 313 308 309 311 309 308 307
328 329 331 333 331 326 324 324 326 329 331 333 331 330 328 326 322 317 316 315 314 315 313 312 310 313 310 309 308 307 307 306
328 330 333 332 330 327 325 325 327 328 331 331 331 328 327 324 321 317 314 316 315 314 313 311 312 311 307 305 304 305 305 305
328 330 332 332 332 328 326 326 327 327 327 327 328 326 324 322 318 315 314 316 314 314 313 311 309 308 306 302 302 301 301 304
329 330 331 331 333 328 325 322 320 325 327 328 328 325 323 320 315 314 315 314 314 314 313 312 309 305 302 301 303 302 298 296
330 329 330 332 331 330 327 324 323 326 328 326 325 322 318 315 315 313 313 314 315 313 311 309 303 299 300 300 301 301 300 296
331 330 330 331 331 331 330 328 326 325 324 323 323 322 319 316 312 312 313 314 314 312 310 304 301 298 298 298 297 297 297 296
331 331 329 331 332 331 331 330 328 324 322 323 321 318 315 312 311 311 313 314 312 308 303 302 299 298 298 299 299 299 299 298
331 329 329 330 331 330 330 329 327 323 321 323 322 315 310 312 311 313 313 311 304 303 299 303 302 298 299 299 298 299 299 298

GFSFLT2_sfc_thetae_063.txt.gz
Theta_e
327 327 327 327 329 330 333 335 337 338 338 337 337 336 336 336 336 336 335 334 333 330 329 328 325 324 323 322 321 323 322 322
323 324 322 320 321 326 329 333 336 336 335 334 334 334 334 334 333 333 333 331 330 327 326 324 322 319 319 321 319 323 319 320
321 320 321 321 322 325 330 334 334 334 334 332 329 329 328 328 331 332 332 330 327 324 322 320 320 318 319 318 318 315 315 317
320 320 321 320 321 323 329 330 331 331 330 329 328 329 329 329 329 330 329 327 324 322 321 321 319 315 313 316 313 313 312 312
320 322 322 322 322 323 327 328 328 329 331 330 329 330 330 329 326 323 323 322 316 316 315 318 318 315 314 313 312 312 311 311
319 320 320 320 323 326 327 328 329 328 328 334 332 329 331 328 325 324 323 322 320 321 319 318 316 314 313 313 312 311 310 310
318 319 321 323 322 321 322 324 326 329 328 332 332 331 331 328 328 325 324 323 322 321 318 316 314 313 312 311 310 310 311 314
319 321 322 321 320 324 325 326 326 328 328 331 334 332 332 327 327 325 324 323 322 320 318 316 314 313 311 310 310 310 311 313
320 321 325 325 326 328 327 326 325 326 327 331 331 332 332 330 326 324 323 324 323 320 317 316 314 312 311 310 310 310 309 310
320 321 325 327 328 328 326 325 326 328 328 330 332 330 330 330 327 325 326 322 320 319 317 315 314 312 311 311 312 310 309 309
323 325 326 326 327 327 328 332 327 325 328 330 333 330 331 329 326 325 324 321 320 318 318 317 313 312 311 312 313 312 309 308
324 324 326 327 329 328 326 326 325 326 327 329 333 334 332 330 327 326 322 320 318 318 318 316 314 313 310 310 313 312 311 309
324 324 326 328 327 324 322 322 324 325 328 331 333 333 332 331 329 326 322 320 319 320 318 315 313 314 311 312 311 311 309 309
325 324 325 328 328 327 324 323 323 325 327 331 333 332 331 329 329 325 322 320 320 319 318 314 314 314 310 309 306 307 308 308
326 327 328 329 329 328 324 324 324 324 325 327 332 332 330 329 329 324 322 320 318 319 317 315 311 312 310 307 304 300 304 308
327 328 329 330 331 328 325 320 318 322 324 327 328 329 328 327 326 324 321 319 318 316 317 317 315 310 309 305 303 302 299 299
330 328 328 330 330 330 327 324 323 324 325 327 328 329 328 326 324 320 319 318 318 316 317 315 314 311 303 300 303 303 305 299
331 329 329 330 331 331 331 328 327 323 324 327 327 327 325 324 321 319 319 316 315 314 317 315 308 304 300 301 299 299 298 297
331 330 328 330 331 331 331 331 330 328 326 326 325 325 322 322 320 317 315 313 312 313 314 310 302 301 302 301 299 300 299 298
330 330 329 330 332 332 333 333 332 331 325 323 324 324 324 324 322 315 311 312 311 311 306 301 303 301 299 299 298 299 299 299

GFSFLT2_sfc_thetae_066.txt.gz
Theta_e
324 323 325 328 330 333 334 337 338 338 338 338 338 337 337 337 336 336 335 333 331 329 327 327 324 323 322 321 322 324 318 319
324 322 322 321 324 329 331 335 335 336 336 335 334 334 335 335 334 334 334 332 329 327 326 324 322 320 318 318 321 322 315 317
324 321 319 319 320 323 327 335 334 334 333 332 329 328 328 328 331 332 332 330 328 325 323 322 319 318 320 319 319 308 311 316
320 320 320 321 323 319 322 329 330 329 329 327 326 324 327 328 330 330 329 328 326 325 323 321 318 308 309 316 308 309 309 314
319 320 321 321 321 319 325 326 328 328 328 327 327 327 326 325 323 322 321 321 314 316 316 313 314 311 310 309 309 307 307 306
319 320 321 320 321 323 325 325 325 324 329 328 327 326 325 323 321 321 319 317 313 315 316 314 311 311 310 308 308 306 306 307
318 320 320 321 321 323 324 324 324 326 328 329 327 326 325 324 323 321 319 321 318 318 314 312 311 309 308 307 307 306 307 310
318 319 322 320 321 322 323 324 327 327 328 330 331 327 327 324 325 322 321 321 320 318 314 312 310 309 307 307 306 307 306 310
317 319 321 320 319 319 320 320 325 326 327 330 331 330 329 327 324 323 321 321 320 318 314 313 309 310 307 307 306 305 305 305
319 320 319 320 321 318 323 323 324 325 327 328 329 329 329 327 325 323 322 321 318 315 313 311 310 308 306 306 306 305 305 304
316 319 320 323 324 324 325 325 325 325 326 328 328 328 328 326 325 323 321 320 317 316 314 313 309 307 307 307 307 306 304 306
316 318 321 324 325 327 325 325 324 324 324 326 328 326 328 327 324 323 320 318 317 314 314 313 311 308 309 307 308 307 306 305
320 320 324 325 322 322 321 322 322 322 323 325 330 330 330 328 324 324 320 317 315 315 315 312 309 309 306 306 307 307 305 304
322 323 325 324 324 323 322 322 322 322 324 325 329 330 330 329 327 324 320 318 317 316 314 310 311 310 305 304 299 302 303 305
322 322 323 324 325 324 323 322 321 321 322 324 329 330 329 328 327 325 320 319 317 317 315 313 309 310 307 303 298 297 298 305
323 323 322 324 327 324 322 318 316 319 320 323 328 330 328 328 326 325 321 318 316 315 315 312 311 307 306 304 299 299 296 296
324 325 324 325 326 326 324 320 320 320 322 322 326 326 326 326 325 323 317 316 315 316 313 312 311 308 305 298 299 300 301 296
325 325 325 326 327 327 326 323 321 319 320 321 325 325 325 325 323 318 317 315 314 315 313 311 308 302 300 299 298 298 297 296
326 326 324 326 328 328 326 328 324 323 321 322 324 323 321 320 320 316 315 315 314 313 311 307 302 299 299 299 299 298 298 297
327 327 325 326 327 329 329 328 329 326 326 325 323 322 322 321 319 317 315 313 312 310 305 301 301 302 300 298 298 297 298 297

GFSFLT2_sfc_thetae_069.txt.gz
Theta_e
327 328 328 329 327 334 335 337 340 341 342 342 341 338 338 337 336 336 335 333 330 327 326 326 325 324 323 323 324 324 315 315
322 324 324 324 325 328 328 330 334 337 337 337 335 335 335 335 334 334 333 331 328 326 326 324 321 320 320 320 322 322 314 314
320 320 322 322 322 325 327 330 334 332 333 333 331 330 329 329 332 332 332 330 328 325 324 321 319 317 317 318 316 314 314 315
319 318 319 320 322 322 324 329 329 327 326 323 325 325 326 328 329 330 330 329 328 325 322 320 314 305 307 312 304 311 314 314
320 320 321 319 318 320 323 326 327 326 324 322 325 325 324 323 322 321 320 322 316 316 313 310 310 306 305 304 304 305 305 309
319 320 321 318 318 320 324 325 325 325 323 325 323 321 319 319 318 317 314 312 308 310 311 308 306 307 306 305 303 302 302 305
319 320 319 321 322 324 324 325 323 324 324 325 322 321 317 318 318 316 315 313 310 313 309 309 306 305 305 304 303 303 306 307
319 320 320 322 321 321 323 324 323 325 324 325 324 321 319 318 317 316 315 316 316 312 310 308 306 305 304 304 303 304 307 308
318 320 319 319 318 321 322 322 324 323 325 326 323 323 319 320 319 317 317 317 316 312 311 308 307 306 304 304 303 303 303 307
319 321 318 319 319 320 320 320 322 322 323 324 324 325 324 321 319 319 318 318 315 312 310 308 306 305 303 302 302 303 302 302
318 320 318 319 319 319 319 319 319 321 321 322 324 325 324 322 320 320 318 316 313 312 310 308 306 304 303 303 302 301 301 304
317 319 318 318 319 315 318 316 318 319 320 323 323 323 324 323 321 318 316 315 313 312 310 311 307 304 307 305 303 303 301 300
314 315 316 317 315 314 318 315 315 316 318 323 323 322 324 321 320 318 315 314 313 311 310 309 307 306 303 303 303 303 302 301
313 314 315 318 319 319 316 317 316 316 317 319 324 323 324 323 320 319 315 314 313 310 310 308 308 307 302 302 298 300 301 302
312 314 317 320 319 318 316 316 316 316 315 318 324 326 326 325 323 321 317 316 314 311 310 309 308 309 305 304 298 295 296 300
316 317 319 320 319 318 316 316 315 316 316 317 324 326 326 326 325 323 319 317 315 313 315 314 310 307 305 303 300 299 294 293
318 319 319 320 320 319 317 315 315 315 315 317 323 325 325 325 324 321 318 317 315 315 314 312 311 309 304 300 300 299 299 295
318 318 318 319 320 320 321 318 314 313 315 316 321 324 324 323 324 322 318 315 314 312 312 312 308 305 302 301 300 298 298 296
318 319 318 319 319 320 320 320 317 314 314 316 320 321 323 322 321 316 315 313 311 312 311 308 304 302 300 300 300 299 298 298
318 318 320 320 320 321 321 321 320 319 317 318 321 322 321 318 315 313 312 311 310 310 307 302 302 300 300 299 298 298 299 298

GFSFLT2_sfc_thetae_072.txt.gz
Theta_e
328 329 330 329 328 331 336 336 340 342 341 339 339 338 337 337 336 335 333 331 329 327 326 326 326 325 327 325 323 321 313 314
324 324 324 324 324 327 328 329 333 338 338 337 336 335 335 334 334 333 332 330 328 326 324 324 324 323 326 324 323 320 311 312
323 323 323 323 323 325 325 327 331 335 335 334 331 331 329 328 331 331 331 329 327 325 324 321 318 321 324 323 320 313 312 312
321 321 321 322 322 321 321 325 327 328 327 326 327 326 327 328 329 330 329 328 325 323 323 320 313 305 307 315 311 312 312 313
318 320 321 319 319 319 322 325 326 324 324 325 325 326 325 324 323 322 321 321 315 313 309 308 305 303 303 304 308 310 310 313
319 320 319 319 318 319 322 324 325 324 324 324 323 320 318 317 316 314 312 311 309 308 309 305 304 304 303 303 304 305 306 310
319 319 317 318 319 319 321 324 323 323 324 322 321 317 316 315 313 311 311 308 310 310 307 305 304 303 303 303 302 302 304 307
319 319 319 319 320 323 324 323 323 323 324 323 320 317 316 314 312 312 312 309 312 309 308 306 304 304 303 303 303 304 304 306
318 319 321 321 322 323 323 322 324 323 324 323 321 318 316 316 313 313 313 312 313 309 307 306 304 304 302 302 303 305 305 307
319 321 320 319 320 322 322 321 323 324 324 323 322 319 318 317 315 314 315 314 313 310 308 306 304 303 301 301 300 301 304 305
319 318 317 317 317 317 319 319 321 322 323 322 321 321 321 319 317 316 316 314 312 311 308 306 304 302 302 300 300 300 300 304
319 317 317 318 318 317 318 317 319 320 320 321 322 322 321 319 317 317 315 313 310 309 308 308 306 304 305 303 300 300 299 299
318 317 317 318 315 314 315 314 314 315 318 320 321 321 321 319 318 316 314 312 311 310 308 307 307 303 302 301 301 301 299 299
314 316 315 316 315 313 316 314 313 317 316 319 321 320 321 319 318 316 313 312 311 310 308 307 307 305 301 303 300 301 300 300
312 315 314 315 316 313 314 314 313 313 313 315 320 321 321 321 319 317 315 313 311 309 308 307 305 306 306 304 299 298 298 301
312 313 312 315 317 314 314 313 313 314 314 314 318 322 321 322 321 318 316 314 312 311 311 309 309 308 307 303 301 301 297 296
310 312 313 315 318 316 316 314 316 314 313 313 316 321 323 323 322 320 317 316 315 314 312 310 311 308 305 300 300 300 301 297
310 311 313 316 318 317 316 315 312 312 314 313 315 320 322 323 323 323 321 316 314 314 312 312 310 308 304 302 301 300 299 298
312 313 313 316 318 318 317 315 313 313 313 314 314 318 320 321 322 320 317 317 313 312 312 311 308 307 305 302 302 301 300 299
314 314 315 317 318 318 319 318 317 316 314 315 316 317 320 323 322 319 315 315 311 310 310 306 305 304 303 301 301 300 300 299

GFSFLT2_sfc_thetae_078.txt.gz
Theta_e
329 332 331 332 332 334 336 337 338 339 339 340 339 337 336 336 336 334 332 334 336 333 331 329 328 327 326 325 323 321 313 315
328 329 325 324 328 333 333 335 335 336 337 337 336 335 334 333 332 331 331 333 334 332 330 328 327 326 325 324 323 320 312 314
324 324 324 323 324 331 333 336 334 334 334 334 331 330 328 325 327 328 328 328 331 332 329 327 326 325 324 323 318 312 313 314
322 322 322 324 323 328 332 331 331 330 330 329 328 326 324 325 325 327 327 326 328 330 329 326 322 318 318 317 312 312 313 314
321 321 322 321 320 325 327 326 328 327 326 326 324 324 324 323 320 318 317 318 317 321 321 313 314 313 311 311 311 312 312 314
320 321 320 319 321 323 325 325 325 323 325 324 323 322 320 318 315 311 306 306 306 305 306 307 309 309 310 310 310 310 311 314
319 319 318 318 317 321 324 325 324 324 324 323 321 319 317 314 311 308 306 307 305 303 303 306 307 308 308 309 309 310 312 314
318 317 317 318 318 321 322 324 324 324 322 320 320 318 315 312 309 307 307 308 305 304 303 303 304 304 305 307 307 309 311 312
317 316 317 317 319 320 322 323 324 324 321 318 318 316 314 311 309 307 308 309 306 304 303 303 301 301 302 303 304 306 308 310
318 319 317 318 318 319 322 322 322 323 320 318 316 315 313 311 309 308 309 310 307 305 304 302 302 300 300 301 303 303 303 306
318 318 317 319 319 321 322 322 321 321 320 318 316 316 314 311 310 310 310 310 307 306 305 303 302 301 300 300 301 303 303 304
319 318 318 320 320 320 320 320 321 321 320 318 316 315 315 312 311 311 311 310 308 307 306 306 303 302 302 300 299 299 300 302
319 317 318 318 318 317 317 317 319 320 320 319 316 316 316 314 313 311 312 311 309 308 307 306 304 302 301 300 300 300 299 298
317 317 317 317 317 319 318 316 317 320 320 319 319 316 315 315 313 312 313 311 310 308 307 304 304 302 300 299 297 300 301 301
317 316 317 317 318 317 315 315 316 315 314 316 317 318 316 316 315 314 313 311 310 307 306 306 304 303 303 302 298 297 299 302
317 316 316 317 317 316 313 314 314 315 313 315 316 317 318 318 317 315 314 312 309 309 308 306 306 303 304 304 303 304 300 299
313 314 314 316 315 315 313 311 312 313 313 313 313 316 317 318 317 315 313 312 311 309 308 306 307 306 303 300 300 301 302 300
310 312 313 315 314 311 311 309 310 309 310 312 312 312 315 316 317 316 315 314 312 311 310 308 307 306 304 303 303 302 301 300
309 310 311 313 314 313 311 311 310 310 310 311 309 311 311 314 315 314 315 315 314 313 311 310 308 309 308 307 306 305 305 303
310 309 310 310 312 312 313 311 312 312 311 310 310 310 311 313 315 316 317 317 316 314 314 313 312 311 310 309 307 306 304 303

GFSFLT2_sfc_thetae_084.txt.gz
Theta_e
337 339 339 334 337 336 336 338 339 339 338 339 340 340 340 340 340 340 339 337 335 333 331 330 329 328 327 327 326 329 326 326
335 336 339 338 338 335 334 336 336 337 337 337 337 337 338 337 337 338 337 336 333 332 330 329 328 327 326 325 325 327 326 325
333 333 335 333 336 335 335 335 336 335 335 336 334 335 337 335 335 336 335 334 332 331 330 328 327 326 326 325 325 325 326 325
329 328 329 333 335 334 333 337 334 334 333 335 332 333 333 334 334 334 334 331 330 330 329 327 324 323 324 323 324 325 325 325
325 325 327 327 328 333 335 342 337 334 331 332 333 331 331 334 335 335 332 329 327 327 325 324 323 322 322 323 324 325 325 324
325 324 324 325 330 331 334 336 336 336 328 329 328 326 325 330 332 331 330 328 326 326 324 326 324 323 322 323 323 323 324 324
325 324 322 323 325 332 332 334 331 329 326 327 325 323 321 324 329 330 329 329 327 326 326 324 323 321 322 323 322 323 324 323
323 323 323 326 326 326 326 328 327 325 324 324 324 323 320 320 323 323 328 330 328 326 325 322 320 320 320 321 322 322 323 324
323 322 322 324 327 325 324 325 324 323 322 321 321 322 322 321 318 318 320 323 325 324 324 321 320 319 319 320 321 322 322 323
322 321 321 324 323 324 323 323 322 322 321 320 321 321 320 319 317 316 318 319 319 320 319 319 319 318 318 318 319 321 322 322
321 321 321 323 323 323 323 323 322 322 321 321 321 319 318 317 317 317 317 315 316 317 318 318 315 316 316 317 318 319 321 320
321 320 319 323 323 323 323 322 322 322 322 319 318 317 318 319 319 319 318 315 316 315 316 316 315 314 311 312 315 317 318 319
319 317 321 323 320 319 320 318 320 320 320 320 320 318 318 319 319 320 319 317 319 320 318 316 314 315 312 312 312 315 315 315
318 317 318 320 322 322 321 320 320 320 320 320 320 319 317 319 321 320 319 319 320 320 320 317 317 316 313 315 312 312 314 314
319 318 318 320 321 321 320 320 321 319 320 319 320 322 320 319 321 322 321 324 322 322 321 320 317 318 318 317 314 313 316 317
321 320 319 320 321 319 318 315 314 318 320 320 320 323 322 321 322 323 324 323 323 324 323 322 321 318 318 317 321 321 315 313
321 321 320 319 320 320 318 316 317 321 318 317 317 323 324 323 324 324 324 323 324 325 324 323 322 321 321 320 318 318 319 316
321 320 319 319 320 320 320 318 317 317 316 315 315 321 323 326 324 325 325 324 325 326 326 325 324 324 323 322 320 318 317 316
319 319 319 319 319 320 321 320 319 317 319 316 315 320 320 324 325 324 324 326 326 327 328 327 327 325 325 323 324 322 323 318
318 318 318 320 320 321 323 324 322 320 319 317 321 322 323 325 327 327 328 328 328 329 329 328 328 327 326 326 325 325 322 318

GFSFLT2_sfc_thetae_087.txt.gz
Theta_e
344 345 340 334 338 338 337 337 337 338 336 337 337 339 338 339 340 339 338 337 336 334 333 332 331 330 329 327 326 329 326 326
340 343 343 340 341 334 334 335 334 335 336 335 334 336 337 338 338 338 337 336 334 332 331 331 330 328 327 326 326 327 326 325
338 339 339 339 340 339 335 334 335 334 334 332 326 335 336 338 336 335 335 333 332 331 330 328 327 327 326 325 327 325 325 324
335 336 337 338 336 338 338 338 337 337 334 334 333 333 335 337 336 333 333 331 331 330 328 327 324 323 323 324 326 326 325 324
332 330 330 336 337 336 335 337 336 335 334 333 331 332 332 337 335 333 331 329 326 325 323 321 322 321 323 325 325 326 325 324
329 328 326 327 328 331 336 338 337 333 331 330 330 330 330 334 333 331 328 326 325 322 322 326 324 322 322 324 325 324 324 324
327 328 325 326 327 330 331 335 337 333 332 330 330 329 328 329 330 330 326 327 326 323 325 323 323 322 323 323 323 324 325 323
326 327 327 326 324 326 331 333 334 332 330 329 327 325 327 328 329 327 329 328 327 326 325 323 321 321 322 323 323 323 324 324
326 326 326 325 328 326 327 330 328 327 324 323 323 323 323 324 327 328 329 329 330 328 325 322 319 319 320 321 322 323 323 324
324 324 323 325 325 325 325 324 323 322 322 322 321 320 320 320 323 327 330 329 327 324 322 319 320 318 319 320 321 322 323 324
323 322 321 323 324 324 322 321 320 320 319 319 319 319 319 319 321 322 324 323 323 323 322 321 319 318 317 318 320 321 322 321
323 321 321 324 323 322 320 319 319 319 318 318 318 318 319 319 319 318 318 317 320 319 320 322 320 318 315 316 319 320 321 321
322 320 320 322 320 318 317 317 318 317 317 318 319 320 319 319 317 318 316 316 317 321 321 320 317 318 314 314 315 318 319 319
321 320 321 321 321 319 318 317 317 317 318 319 319 318 318 320 321 319 320 318 319 320 321 318 316 319 313 314 311 312 315 317
321 321 321 323 322 321 319 319 319 318 317 316 318 318 317 320 325 321 322 321 321 323 324 321 317 318 320 318 314 313 317 317
324 322 320 322 323 320 317 314 313 316 315 315 318 321 319 317 320 323 321 322 323 323 324 325 324 318 319 318 322 320 315 314
323 322 320 321 322 320 318 315 314 315 316 317 320 322 322 320 319 323 326 325 326 327 327 324 324 322 320 320 319 319 321 315
323 321 320 321 321 320 318 317 315 316 315 316 318 319 320 321 322 326 326 327 327 328 328 326 326 326 324 324 321 318 316 317
321 320 319 320 320 321 320 318 317 318 316 316 314 315 317 320 323 327 326 327 327 327 328 327 328 326 327 324 325 323 323 322
320 319 319 320 320 321 322 321 318 319 320 317 314 315 317 322 327 326 326 327 327 328 328 329 330 329 329 327 326 326 326 324

GFSFLT2_sfc_thetae_090.txt.gz
Theta_e
344 343 340 339 340 339 336 338 334 335 333 330 331 336 337 339 338 340 340 339 337 335 334 333 332 331 328 327 327 329 322 322
341 342 339 339 338 337 336 336 335 333 334 332 331 335 335 337 337 338 337 337 335 333 333 332 331 329 326 326 326 328 321 321
337 335 340 339 339 335 335 337 336 335 335 333 331 332 333 335 334 335 335 334 333 332 331 329 328 326 325 326 326 321 320 321
334 334 336 338 337 335 335 336 335 333 332 330 331 331 332 334 333 333 333 332 331 330 329 327 325 320 320 323 320 322 321 320
332 331 332 335 335 335 335 335 333 333 331 331 329 331 331 331 331 330 328 329 326 325 323 320 318 317 319 319 321 322 320 319
330 328 328 330 332 332 333 333 333 331 331 331 328 330 330 330 328 327 324 323 321 319 318 318 317 319 320 322 320 321 320 320
327 327 326 327 328 331 330 331 333 331 331 331 329 329 328 329 328 323 321 320 318 316 319 318 317 317 319 319 320 321 319 320
327 326 327 326 326 327 330 330 332 332 330 330 329 329 328 328 326 321 321 322 318 319 319 319 317 317 318 319 319 320 319 319
326 325 325 327 326 327 328 330 330 330 330 329 329 329 328 327 325 321 322 323 320 323 320 319 318 318 317 318 319 320 319 319
325 324 323 326 326 327 328 328 328 325 324 328 327 327 326 326 324 325 324 324 323 321 318 316 315 316 315 315 317 318 320 319
323 323 322 324 325 324 322 322 322 323 322 322 323 324 323 324 324 324 325 324 322 320 318 317 314 314 315 315 317 317 318 320
322 321 323 324 321 319 319 319 318 319 319 319 319 319 319 319 319 320 320 320 320 318 316 318 315 313 314 314 316 317 317 316
320 320 322 322 318 316 315 314 315 316 317 317 317 317 317 317 317 316 316 315 316 316 317 316 313 316 312 312 312 315 316 316
320 320 322 321 319 318 316 315 314 315 316 316 316 316 317 316 315 314 314 313 314 316 315 313 313 313 309 309 305 308 311 313
320 319 321 321 320 318 317 315 314 312 313 314 315 316 317 316 315 314 314 314 314 315 317 312 310 312 314 312 309 306 307 311
320 321 321 321 319 316 314 311 310 312 312 313 315 317 316 316 315 317 315 316 317 317 320 316 316 311 313 316 315 315 311 308
320 321 321 321 319 317 314 312 313 314 314 313 313 314 315 316 320 319 319 318 319 319 320 321 319 318 314 313 313 313 314 311
320 319 319 321 320 318 315 313 313 313 312 312 313 314 316 316 318 319 319 319 320 321 321 321 320 319 318 317 315 312 311 310
320 319 317 320 320 319 316 314 314 313 312 312 312 314 317 318 318 317 319 321 322 323 321 321 320 319 319 317 318 317 317 314
319 319 318 319 320 320 318 316 315 315 314 314 314 314 315 318 319 320 320 321 322 322 321 321 321 320 319 320 319 318 318 316

GFSFLT2_sfc_thetae_093.txt.gz
Theta_e
336 338 341 341 342 340 338 338 337 336 335 333 330 332 336 338 340 340 341 339 338 337 335 335 334 333 330 327 328 327 320 320
334 334 336 334 335 337 336 335 335 334 334 332 330 331 335 337 336 338 339 338 337 335 334 333 332 330 327 326 327 326 320 320
331 336 337 336 333 336 336 336 334 334 333 332 330 330 334 334 335 337 337 336 335 334 332 330 329 327 327 326 325 321 321 320
327 332 336 336 336 329 330 333 332 331 331 330 330 330 330 334 334 334 334 333 333 332 330 328 324 317 318 322 320 320 319 319
326 326 328 333 333 332 329 330 330 330 330 330 328 329 331 331 332 330 329 330 326 325 324 319 317 316 316 317 319 319 319 319
324 324 327 328 332 332 331 330 329 330 330 328 326 329 327 329 328 326 325 323 320 320 316 314 314 316 317 318 319 317 318 319
322 324 325 326 327 329 330 329 329 329 330 327 329 328 327 328 326 324 322 321 318 315 314 314 313 316 316 318 318 317 318 319
322 322 323 324 321 323 324 327 330 330 330 328 328 329 329 327 322 320 319 317 315 316 314 313 314 314 316 318 318 318 318 318
321 322 325 324 320 321 322 325 328 330 329 329 328 330 329 324 320 319 317 314 315 316 315 314 313 316 316 317 318 318 318 318
321 323 323 325 322 322 322 325 328 330 329 329 328 328 329 323 320 319 320 314 317 318 317 314 313 314 313 313 317 317 317 317
319 319 321 323 323 322 321 324 325 325 328 329 328 328 328 324 321 320 322 316 320 318 314 315 314 314 313 313 314 317 317 318
319 319 322 322 321 320 320 319 320 322 324 326 328 328 327 324 323 321 321 320 317 316 315 314 314 314 315 314 313 316 317 316
317 318 321 319 318 316 315 314 315 316 319 321 323 325 324 323 321 320 321 318 316 315 315 313 312 312 310 310 311 313 313 314
317 318 321 319 318 317 316 315 315 315 316 316 318 320 321 320 318 316 317 316 314 313 314 311 311 312 308 307 303 306 309 312
317 319 320 319 318 316 315 314 314 312 312 313 315 317 319 318 316 314 313 313 312 312 313 311 309 309 311 308 304 302 304 307
317 319 320 319 318 315 312 311 309 312 312 312 314 316 316 316 314 314 313 312 311 313 315 311 309 307 309 315 314 313 305 304
317 319 320 318 317 315 312 310 311 312 312 311 313 314 316 315 315 314 314 314 313 314 315 313 313 310 310 310 310 311 312 308
317 319 319 318 316 315 311 309 310 310 310 311 311 313 313 314 314 314 313 314 316 316 317 316 316 315 315 314 311 309 308 308
316 318 318 318 316 314 313 313 312 311 310 312 310 311 312 314 314 315 316 317 318 317 317 318 318 317 317 315 316 313 313 311
316 317 318 318 317 315 313 314 314 313 311 312 312 311 311 314 315 317 317 317 318 318 319 319 318 317 317 317 316 315 315 314

GFSFLT2_sfc_thetae_096.txt.gz
Theta_e
336 338 343 343 342 342 342 341 337 337 336 335 336 334 333 332 335 338 339 340 339 339 338 337 335 333 331 329 328 327 322 324
332 332 333 335 338 338 338 338 337 337 336 335 333 333 334 333 336 335 338 339 338 337 336 334 332 330 329 327 326 326 321 322
330 331 332 331 333 337 337 336 335 334 334 332 330 327 331 332 334 336 337 336 336 335 334 332 329 328 328 326 324 320 320 321
326 330 332 331 334 334 334 333 331 329 328 328 325 329 329 333 334 335 335 334 334 333 332 330 324 320 324 325 320 320 319 318
325 327 330 330 328 328 330 332 328 327 327 327 325 328 331 332 332 332 331 332 328 328 326 320 315 316 318 319 319 318 318 319
324 323 325 327 329 329 330 330 330 329 329 328 326 328 327 329 330 330 329 326 322 320 316 315 314 316 318 318 317 318 318 319
321 322 322 324 327 327 329 328 330 329 329 328 328 327 327 329 328 327 325 323 320 314 312 313 312 315 318 317 316 317 318 319
320 320 321 323 322 324 327 327 327 329 329 327 329 328 326 326 325 323 321 320 318 315 312 311 312 314 317 316 316 317 318 318
320 320 320 322 319 322 326 327 329 329 328 326 329 328 327 324 322 320 319 317 314 312 311 312 311 315 316 316 316 317 318 318
321 323 321 319 318 319 321 323 329 329 328 327 329 328 327 322 320 318 317 314 314 313 313 311 310 314 315 316 315 317 317 317
319 319 319 321 321 323 319 324 327 328 329 328 328 329 326 322 319 316 313 313 315 314 313 313 310 312 314 315 315 315 316 318
319 318 320 321 322 321 321 321 323 325 328 328 327 328 325 322 319 316 312 314 316 315 313 313 313 313 315 314 315 315 315 315
317 317 320 320 319 317 317 316 317 319 323 327 327 328 325 322 320 318 312 316 317 315 313 313 312 312 311 311 311 314 314 314
316 318 318 319 319 317 316 316 315 317 318 320 327 327 325 322 320 318 314 318 315 314 313 310 310 312 310 307 304 307 310 312
316 317 318 318 318 316 315 314 313 312 314 315 318 325 324 323 319 319 318 317 314 314 313 312 310 309 312 307 302 302 305 308
316 317 318 318 316 315 313 311 310 312 312 313 316 320 323 322 320 319 318 316 314 314 313 311 311 309 308 313 312 309 304 302
316 317 318 317 315 314 313 312 312 312 312 312 314 315 318 319 318 317 314 314 313 314 312 311 310 309 308 309 310 311 311 307
315 317 316 317 315 314 313 312 311 310 310 311 312 314 315 315 315 315 315 313 313 313 314 313 312 311 311 311 310 309 308 308
315 316 314 316 315 314 310 310 310 311 311 311 311 312 313 313 314 313 313 314 315 315 315 316 314 313 313 311 313 312 313 311
315 315 314 315 314 313 311 310 311 312 312 312 312 312 313 313 313 314 314 314 315 316 315 315 317 315 314 315 314 314 314 311

GFSFLT2_sfc_thetae_099.txt.gz
Theta_e
335 337 341 342 343 343 342 341 338 338 337 337 336 335 334 337 339 340 341 340 339 339 338 336 335 333 331 329 329 328 324 325
333 334 335 339 341 339 340 339 337 336 336 336 335 335 334 334 335 336 339 339 337 337 336 335 332 331 329 328 327 327 322 323
329 329 329 330 336 337 339 338 336 336 336 336 333 329 329 331 334 335 337 337 335 336 334 332 329 329 328 327 325 320 321 322
328 327 327 328 334 333 334 337 336 335 334 331 327 324 327 331 334 335 336 335 335 335 333 329 327 324 324 324 319 319 321 321
326 328 327 328 329 329 333 332 330 330 328 327 324 327 326 328 329 331 333 332 331 330 326 318 322 322 319 317 318 318 319 320
323 326 326 326 327 327 331 331 328 328 327 326 323 327 328 329 330 328 328 329 327 326 319 316 316 317 317 317 317 318 317 317
323 322 324 326 326 326 328 330 329 328 327 325 325 326 327 329 329 329 329 327 324 321 317 314 315 316 317 317 316 316 316 318
321 321 323 324 326 324 326 327 328 328 327 327 326 327 327 328 326 328 326 325 322 319 315 313 313 315 315 316 316 316 316 316
321 320 321 322 322 322 323 325 327 326 327 327 327 327 326 327 325 323 324 322 319 317 314 312 311 315 314 314 315 315 315 315
321 322 320 319 319 320 321 326 327 327 328 327 328 328 326 323 325 322 319 318 316 315 312 312 313 314 313 313 315 315 315 316
319 320 319 318 317 318 318 324 327 328 328 326 328 328 325 322 321 319 317 316 315 314 312 312 313 314 313 313 314 315 315 317
320 320 319 318 319 319 319 324 326 327 328 327 328 328 324 321 319 317 316 314 314 313 311 311 314 314 315 313 312 314 315 315
318 317 320 320 318 318 318 319 319 322 326 327 327 328 324 321 318 316 313 313 314 312 312 311 310 315 312 310 309 312 312 314
316 317 320 319 319 318 315 317 317 319 321 323 327 327 324 322 319 315 311 313 314 312 312 309 309 314 311 309 305 307 310 311
316 318 318 318 316 314 314 314 314 314 315 319 321 327 324 322 319 316 311 315 314 312 313 312 310 309 313 308 303 303 306 307
317 317 316 317 316 314 313 312 311 312 313 315 317 322 324 323 321 317 313 317 314 313 314 313 313 309 308 312 310 308 305 301
317 317 316 316 316 312 311 312 313 312 312 313 316 318 323 323 320 316 314 317 315 314 312 311 313 310 309 309 311 310 309 304
316 316 316 316 315 311 311 312 311 310 311 311 313 314 318 320 319 316 317 316 315 313 312 311 311 311 310 311 310 309 308 308
315 315 315 315 313 311 311 311 312 311 311 312 312 313 313 315 318 316 315 315 316 315 313 312 312 310 310 311 312 312 313 311
315 315 314 314 313 311 312 311 312 312 312 313 313 313 314 315 315 316 315 315 316 315 314 314 313 312 311 311 312 312 312 313

GFSFLT2_sfc_thetae_102.txt.gz
Theta_e
333 337 343 343 342 343 342 341 341 340 341 342 341 341 342 344 343 342 341 340 342 341 339 338 336 334 333 331 330 329 326 326
331 333 335 338 341 340 340 339 338 338 337 337 335 335 336 337 338 339 340 341 340 338 337 336 334 332 330 329 329 327 323 324
330 331 332 333 336 341 340 339 337 337 337 336 333 332 332 333 334 336 337 336 337 336 335 332 331 330 329 328 325 321 321 322
329 328 328 328 333 338 338 339 336 335 335 334 332 330 330 332 332 334 336 334 334 335 332 331 328 325 325 324 320 320 320 321
328 325 325 325 333 334 335 335 336 334 333 332 328 328 329 330 328 330 331 333 331 332 328 325 324 322 320 316 317 318 318 321
326 324 324 324 331 331 332 330 331 330 330 328 327 326 326 329 329 330 329 329 329 328 322 322 321 320 317 316 317 317 317 319
323 324 325 324 326 327 329 328 328 327 328 326 326 326 325 327 328 327 328 329 327 320 318 320 318 317 317 317 317 317 317 319
322 323 325 327 327 327 328 330 328 327 326 326 325 324 327 327 328 327 327 326 325 318 317 317 317 317 315 316 315 316 317 318
322 322 323 327 328 325 327 327 328 328 327 326 325 324 325 328 326 326 326 325 322 317 316 317 316 316 314 314 316 317 316 317
323 324 322 324 327 324 324 325 327 327 327 326 326 327 327 327 325 325 326 323 320 316 315 315 314 314 312 313 315 316 315 316
320 322 321 321 319 323 324 325 325 326 327 326 327 327 325 324 326 323 324 320 318 316 314 315 313 312 312 312 313 313 314 316
320 321 320 318 318 320 321 323 325 326 326 325 327 327 324 323 321 319 320 319 316 316 313 315 314 313 314 311 311 313 314 314
319 320 318 319 320 320 320 321 321 323 325 327 327 327 324 321 319 316 317 316 314 314 313 313 313 314 311 309 309 312 313 313
320 319 319 320 320 321 319 319 319 321 324 326 327 327 324 321 318 316 316 315 313 313 313 312 313 314 311 308 306 309 311 312
319 318 319 320 320 318 315 315 315 316 317 321 324 326 324 322 319 316 315 315 313 312 313 313 311 313 314 308 304 303 306 309
318 318 319 319 318 315 313 311 311 313 316 317 319 324 324 323 319 316 314 314 313 312 314 314 314 310 312 311 311 310 305 302
318 318 318 317 316 316 314 313 314 313 313 315 316 318 323 322 319 316 312 314 314 312 313 312 314 312 311 309 309 310 308 305
317 317 316 316 315 314 312 310 312 311 312 313 315 316 320 322 321 317 313 315 314 312 314 313 313 313 311 311 310 309 308 308
316 315 313 314 313 313 309 309 311 311 311 312 313 314 315 320 319 317 314 317 315 313 312 312 312 312 311 310 312 312 313 311
315 315 314 314 313 313 310 310 311 311 312 313 313 314 315 317 318 315 315 316 315 314 314 312 312 311 310 311 312 313 313 313

GFSFLT2_sfc_thetae_105.txt.gz
Theta_e
347 348 347 343 342 342 342 343 343 344 345 343 345 344 341 343 342 342 343 343 342 342 341 338 338 336 334 332 331 334 337 336
343 347 347 348 349 340 340 340 340 340 342 341 338 339 340 340 340 341 342 341 340 340 339 337 336 334 332 330 330 332 335 335
342 344 347 346 348 347 341 341 339 338 339 338 336 344 343 342 340 336 339 339 340 339 337 334 332 331 331 329 330 334 334 334
340 342 343 346 345 348 344 345 343 340 341 343 343 341 341 340 338 335 337 336 336 336 334 332 331 330 332 329 332 333 333 333
335 337 342 342 342 344 343 342 340 339 341 338 337 334 336 337 337 337 338 336 339 333 333 332 330 330 329 330 332 332 331 331
334 336 339 340 340 341 341 339 337 338 337 339 338 334 332 333 332 333 334 338 337 331 333 329 327 328 326 328 330 330 330 330
334 336 337 337 334 336 338 336 334 334 336 335 338 335 330 335 332 332 335 336 336 329 327 325 324 326 326 326 327 328 329 328
334 336 337 335 333 331 333 333 332 332 333 334 335 337 335 330 331 332 332 331 332 325 322 322 322 325 323 325 326 326 327 327
329 333 336 334 333 330 331 333 333 331 330 330 333 334 331 329 331 331 330 326 326 322 321 320 320 323 322 324 325 325 325 326
329 329 333 333 331 329 330 332 332 332 331 331 331 331 330 331 330 327 327 322 319 320 318 317 318 321 319 322 323 324 325 325
328 329 330 331 330 329 328 329 329 331 332 330 331 329 330 331 330 327 325 322 317 318 317 317 318 318 319 321 322 322 323 323
327 329 330 330 328 326 327 327 327 329 329 329 330 328 327 329 328 324 324 321 318 318 317 317 317 317 318 319 321 322 322 323
326 327 328 327 323 322 323 324 325 326 328 328 327 328 328 327 325 322 324 320 316 316 317 315 317 321 317 316 318 320 321 322
325 326 325 328 326 326 327 326 325 325 327 327 327 328 327 324 321 319 320 319 317 315 316 315 315 317 315 314 308 311 318 320
323 325 323 328 328 326 325 322 322 321 322 325 326 328 325 324 320 318 316 316 315 316 316 316 313 315 318 316 308 307 312 318
323 323 322 325 325 322 322 320 318 319 320 323 326 328 324 323 320 319 318 317 315 316 317 316 315 313 317 316 319 315 311 308
322 321 321 323 323 323 321 318 319 319 320 319 323 325 325 322 320 318 317 317 316 316 316 316 317 317 315 313 313 315 317 312
321 319 319 321 322 320 317 317 319 318 316 316 319 319 321 323 319 318 316 316 315 316 317 317 317 318 318 316 314 312 311 312
320 318 317 319 319 317 316 318 318 317 316 315 317 317 319 321 319 317 316 315 315 314 315 318 320 318 317 316 317 316 317 317
318 317 316 318 317 315 315 319 319 319 318 317 317 319 319 323 321 318 316 315 315 314 314 315 315 317 317 317 317 317 317 318

GFSFLT2_sfc_thetae_108.txt.gz
Theta_e
353 352 349 343 343 344 343 344 345 345 346 346 347 345 344 344 344 344 342 343 342 343 342 339 340 338 337 334 334 336 338 337
351 352 351 349 351 341 341 341 341 343 344 344 341 340 342 342 342 341 341 343 342 342 338 338 337 336 334 333 332 334 338 335
348 349 349 348 348 347 341 341 341 340 343 340 337 349 347 346 341 339 340 340 340 339 337 336 333 332 332 332 332 337 336 334
345 347 348 348 347 350 350 349 347 349 348 347 348 347 346 342 340 337 338 336 338 338 336 333 333 333 331 332 339 336 336 333
343 347 349 347 347 346 347 347 349 349 349 349 348 346 346 345 344 340 341 337 337 339 335 335 333 331 329 331 337 336 334 333
343 345 347 347 345 345 346 343 346 345 347 346 345 343 342 342 342 340 339 339 339 339 333 335 333 330 329 333 333 335 330 332
342 342 346 346 345 344 343 345 344 343 343 345 344 340 340 341 338 337 338 338 340 333 336 331 329 330 329 332 331 332 331 330
342 342 345 346 345 341 342 343 343 343 343 341 342 343 338 341 339 335 337 338 339 334 335 332 328 328 327 331 331 331 331 330
339 343 345 345 343 341 341 340 340 341 339 338 340 340 340 340 339 336 338 336 335 334 330 331 328 326 327 329 329 330 330 329
335 337 341 344 342 340 337 337 338 335 335 335 337 337 339 337 336 336 334 335 331 327 324 322 322 323 325 327 327 328 328 327
331 337 337 341 342 339 336 336 335 338 337 334 333 336 337 335 336 332 331 328 325 324 322 321 320 321 323 327 327 326 327 325
326 331 336 338 341 338 333 334 334 336 337 336 337 336 334 335 334 331 326 321 319 319 320 320 319 319 321 323 326 325 326 323
323 327 333 334 333 330 328 327 330 331 334 335 336 334 336 332 331 329 324 319 319 320 319 317 317 320 319 320 322 324 323 323
326 328 332 334 331 330 331 329 329 331 332 335 333 334 333 329 328 327 323 320 320 321 319 317 317 320 317 315 311 314 320 322
326 328 331 333 334 329 330 330 329 328 329 330 331 332 331 329 328 326 324 321 317 318 318 317 314 318 321 317 309 308 315 320
327 328 330 332 333 328 328 327 324 328 327 328 329 330 329 329 329 327 323 321 318 317 318 317 317 315 318 321 322 319 313 311
327 328 329 329 330 328 329 330 330 331 330 328 326 328 329 329 324 321 319 319 318 318 318 317 317 316 316 316 319 318 319 314
328 327 327 327 326 328 330 331 330 327 324 323 322 324 327 325 323 321 320 319 318 318 318 317 317 317 317 317 318 316 315 314
325 326 324 324 324 325 329 331 329 328 327 324 320 322 324 325 320 320 318 318 321 319 319 318 318 317 316 317 320 319 318 318
323 324 322 321 321 322 326 328 329 327 326 323 322 322 326 323 321 322 319 319 319 319 318 318 319 318 317 317 320 321 319 317

GFSFLT2_sfc_thetae_111.txt.gz
Theta_e
355 352 348 344 345 345 345 345 346 347 348 346 346 346 344 346 346 344 345 345 345 345 343 340 340 340 336 335 335 335 338 338
352 353 351 350 350 342 342 342 343 344 345 344 342 341 343 343 342 343 344 342 344 343 340 339 339 337 334 332 333 333 338 336
349 349 350 351 351 347 342 342 341 342 344 343 341 348 347 346 342 340 340 340 341 341 339 337 335 333 333 331 332 338 335 335
344 347 348 349 346 350 348 348 348 347 348 349 350 348 347 344 342 339 339 339 338 337 336 334 334 338 335 332 335 337 336 335
340 346 349 347 345 346 346 347 347 347 348 348 349 347 349 346 347 346 344 338 338 338 337 338 337 336 335 334 334 335 335 333
340 343 347 349 344 343 344 347 347 347 348 352 349 348 346 345 342 343 343 340 338 339 340 339 337 335 336 333 332 332 333 334
340 343 346 348 348 344 345 348 345 348 346 348 348 345 344 343 343 342 340 338 338 339 338 337 335 333 334 332 331 331 331 332
341 343 347 347 346 347 346 347 347 345 345 346 348 346 345 346 344 342 342 341 341 340 338 335 333 333 331 329 329 330 331 330
339 344 348 346 346 345 345 344 344 345 344 346 346 346 345 343 342 341 342 340 340 339 337 337 334 331 328 328 329 331 329 328
332 339 344 346 347 345 344 342 342 342 343 343 343 344 344 341 339 339 341 341 339 336 334 331 329 327 326 327 327 328 329 326
329 338 340 344 347 345 346 344 341 341 341 338 341 339 340 339 339 340 341 337 335 333 327 328 324 324 324 325 326 327 327 325
327 330 338 341 343 346 343 340 339 340 339 339 340 340 339 338 337 339 338 332 329 327 324 323 322 322 323 323 324 327 326 325
323 324 331 338 336 338 340 333 334 335 339 339 339 337 336 335 334 334 333 328 325 324 322 321 320 322 320 320 321 325 326 324
326 326 327 330 334 336 338 332 332 334 336 339 338 337 335 334 334 330 326 324 323 322 319 317 318 321 318 316 312 317 322 322
325 327 328 330 334 337 334 333 331 330 331 334 336 336 334 335 334 331 325 323 320 320 319 318 315 319 320 316 310 309 315 321
328 328 328 330 335 334 330 328 326 328 331 333 333 336 334 333 332 329 325 322 320 320 322 319 317 315 318 320 319 317 312 311
328 329 329 330 332 334 331 328 331 333 333 332 330 333 331 333 331 327 325 322 321 319 319 317 317 315 315 316 316 317 319 314
326 327 328 330 331 333 331 328 332 331 332 331 328 331 332 330 329 328 327 325 321 319 320 318 317 316 317 317 316 314 315 315
322 323 326 329 330 329 330 330 332 333 333 331 328 327 328 328 325 326 325 324 323 320 319 318 317 317 317 317 318 318 319 317
321 322 323 327 328 325 329 329 330 331 331 330 328 327 328 326 324 323 322 322 323 320 318 318 318 317 317 317 317 318 319 320

GFSFLT2_sfc_thetae_114.txt.gz
Theta_e
348 347 346 345 345 346 346 346 347 347 348 347 348 345 345 345 347 346 345 345 343 343 342 341 341 340 338 335 334 333 333 336
349 348 347 346 346 343 343 343 344 345 346 345 345 343 344 343 343 344 343 344 342 343 340 339 339 337 336 334 333 332 332 335
350 349 347 347 346 345 342 343 343 343 345 344 340 347 345 345 342 341 342 341 340 342 338 337 336 335 335 332 331 332 333 331
346 347 347 348 346 346 345 345 345 345 347 346 345 347 345 343 341 340 340 338 339 338 338 335 334 334 332 333 333 335 333 334
341 346 348 347 343 346 345 345 345 344 345 345 346 345 344 342 341 339 339 337 336 336 334 334 335 334 332 332 333 332 332 334
338 344 347 347 345 344 345 343 344 343 344 344 345 344 343 341 340 339 338 337 334 334 334 332 334 334 333 332 330 332 331 333
337 341 345 347 347 343 344 345 344 344 344 345 345 343 341 341 340 339 338 337 335 333 333 333 333 332 332 332 330 330 330 328
338 339 344 346 345 346 342 347 344 345 344 344 346 344 342 340 339 337 337 337 336 334 334 332 333 331 331 331 329 329 329 330
338 340 345 345 346 345 345 343 345 343 343 344 344 344 343 340 339 337 337 336 334 334 332 332 331 331 329 328 329 328 329 329
337 340 344 344 345 345 342 343 344 344 342 342 342 343 342 339 338 337 337 334 333 332 330 329 329 327 327 326 326 326 328 329
328 340 344 344 344 345 344 342 342 340 342 341 341 341 341 339 337 337 337 333 331 331 330 328 327 326 326 325 325 326 326 327
329 337 341 345 343 343 344 342 340 340 339 339 339 337 340 337 335 335 336 334 331 330 328 329 326 325 325 324 324 325 325 323
324 328 338 340 340 340 339 338 337 336 337 338 336 336 337 335 334 333 333 330 327 327 325 323 322 324 321 320 321 323 323 322
326 326 326 332 337 337 339 339 337 335 335 337 337 337 336 333 333 330 330 327 325 324 322 319 320 323 318 317 313 315 319 321
324 325 326 328 327 334 336 335 332 330 331 331 336 336 335 334 331 330 328 326 323 323 322 319 316 319 321 316 310 308 314 318
325 327 327 327 331 329 333 329 327 329 330 330 333 334 333 333 332 328 326 325 322 322 322 320 319 316 318 319 317 316 310 308
325 327 328 328 329 330 333 330 330 329 328 328 329 331 332 331 331 328 325 323 322 321 320 319 319 318 317 315 315 315 315 312
324 324 323 328 329 330 332 329 328 327 328 326 328 330 330 331 330 328 325 323 321 321 320 319 318 319 318 316 315 313 313 313
320 320 319 323 329 328 331 331 329 328 329 329 327 327 327 328 329 326 325 323 321 321 320 319 318 316 316 316 317 317 317 315
316 315 316 320 320 327 328 331 329 328 330 330 327 326 327 329 328 326 324 324 322 320 320 318 318 317 316 317 318 318 318 316

GFSFLT2_sfc_thetae_117.txt.gz
Theta_e
341 342 344 345 345 345 345 346 346 347 347 347 347 346 345 347 346 346 344 343 344 343 342 341 341 340 339 336 334 335 331 332
339 339 340 339 341 343 343 343 344 344 345 345 345 343 343 343 344 344 344 341 342 342 340 340 340 338 337 335 332 333 331 334
340 340 339 338 338 342 342 343 343 342 344 343 341 342 342 342 341 341 343 341 341 340 339 338 336 335 335 333 332 331 330 333
342 340 340 340 343 339 338 341 342 342 342 340 341 341 340 342 340 339 340 339 339 339 337 335 334 331 330 332 329 332 331 331
342 341 341 341 341 339 339 339 339 340 340 340 338 341 339 339 337 336 335 337 335 336 333 332 331 329 327 327 328 331 331 330
340 341 341 341 338 339 339 339 338 338 338 339 339 337 336 335 335 334 334 331 331 331 330 330 330 330 329 327 329 330 329 329
337 340 341 341 337 341 339 339 340 339 338 339 339 337 335 335 334 334 334 333 331 330 330 329 329 329 329 328 327 328 328 328
334 338 341 341 339 337 337 339 339 339 338 339 338 338 336 335 333 333 333 333 330 331 330 329 329 328 328 329 326 326 328 326
331 337 340 340 338 338 336 340 340 338 339 339 340 339 337 335 334 332 333 332 330 330 328 328 327 330 327 330 326 325 327 329
332 338 339 341 339 338 338 339 339 338 338 337 340 340 338 335 334 331 331 330 329 329 328 326 326 326 324 324 324 325 328 328
332 336 338 339 338 339 336 335 338 339 337 337 335 337 337 335 334 332 331 329 327 328 324 326 326 326 324 326 325 324 326 329
329 336 339 339 340 337 336 334 334 335 338 337 336 336 337 334 333 332 332 328 325 326 326 322 326 325 326 325 324 324 325 325
324 336 337 338 335 333 331 334 333 330 333 335 336 336 337 335 333 331 332 329 327 327 327 325 322 323 322 322 322 324 324 324
316 327 337 338 337 336 334 332 332 334 330 332 334 332 334 336 334 330 329 327 327 326 324 321 321 324 319 317 313 316 321 323
315 317 320 329 335 332 329 328 326 326 326 328 331 332 332 333 332 330 328 325 324 324 323 322 318 322 322 317 310 309 314 319
317 320 320 321 320 326 327 326 322 324 325 326 330 333 333 334 332 329 325 324 324 324 323 321 319 316 320 319 315 315 311 309
316 319 319 320 320 321 327 324 327 324 324 324 325 331 333 332 331 328 325 323 321 322 322 321 320 318 318 317 314 315 315 312
312 312 313 316 319 319 326 325 324 322 323 324 326 327 330 329 330 327 326 325 322 322 322 320 320 319 319 318 315 314 313 312
310 311 310 311 313 315 317 325 324 323 324 324 324 325 327 329 329 326 324 323 322 322 320 320 319 318 318 317 317 316 317 315
307 308 308 309 311 313 314 316 326 325 326 327 325 326 328 329 328 326 325 323 322 322 320 320 319 318 318 317 317 317 318 317

GFSFLT2_sfc_thetae_123.txt.gz
Theta_e
339 342 345 344 344 344 343 344 345 345 346 346 346 345 345 345 346 347 346 346 346 344 342 341 341 340 337 334 333 334 330 331
339 342 344 345 344 341 340 341 342 343 344 343 342 342 343 343 343 345 345 345 344 343 340 339 339 338 334 333 332 332 326 330
338 339 341 342 343 343 341 342 342 341 343 342 339 341 341 342 341 341 343 342 342 341 339 338 336 335 333 333 332 329 323 328
335 337 337 338 341 343 344 344 344 344 343 342 341 337 337 341 340 339 341 339 339 339 338 336 335 330 331 332 327 327 328 327
333 335 335 337 339 340 340 341 341 342 339 337 339 338 336 336 335 337 336 337 335 334 333 331 330 328 326 326 326 327 327 326
333 334 334 334 337 337 337 338 338 338 340 334 336 340 336 333 334 333 333 333 331 330 328 328 328 327 325 325 325 326 325 325
333 334 333 334 334 335 336 335 336 337 338 338 337 338 337 334 332 331 331 330 330 327 327 326 326 325 324 324 325 325 325 324
333 333 334 334 334 333 334 335 336 336 337 339 337 338 337 333 331 331 330 330 329 329 327 325 324 324 324 324 324 324 324 323
335 334 334 334 334 333 333 334 334 334 335 336 338 336 334 333 332 330 330 329 327 325 324 323 323 324 323 324 323 324 324 323
337 338 335 334 334 335 334 334 334 333 333 334 336 336 335 332 331 330 330 329 327 326 324 321 322 322 320 322 326 324 324 322
332 337 336 336 335 336 335 334 335 335 334 334 334 335 335 333 332 330 329 328 327 326 323 323 323 324 323 323 324 326 326 326
331 335 336 337 337 334 331 332 333 334 335 335 334 335 335 334 332 330 330 327 326 326 326 323 324 326 325 324 325 325 326 325
328 329 334 336 335 331 330 332 333 333 335 335 335 335 334 334 332 330 330 329 326 325 323 324 324 327 322 322 322 324 324 325
322 327 331 334 336 335 334 334 332 334 334 335 335 335 335 334 332 331 332 330 327 326 327 323 324 326 320 318 314 317 322 323
317 325 328 333 334 331 327 327 326 325 327 332 334 333 335 335 333 332 330 330 327 326 327 325 321 323 322 316 311 309 313 320
318 321 322 327 328 327 326 326 324 328 329 332 331 333 333 334 332 331 331 331 329 328 328 327 324 320 322 320 317 314 311 309
309 311 312 314 319 322 323 323 325 324 324 326 326 330 331 333 333 331 331 330 330 328 327 325 324 322 320 318 315 311 315 311
306 306 306 307 310 310 310 310 314 319 321 322 323 326 329 330 331 331 332 329 328 327 326 325 323 322 321 319 317 315 313 312
303 303 302 304 304 305 306 307 308 310 317 322 323 321 324 328 328 328 329 328 327 327 325 324 322 321 320 319 319 317 317 316
299 299 299 300 300 300 301 302 304 307 312 318 323 325 326 328 327 328 328 327 324 324 324 323 322 321 319 319 319 320 320 318

GFSFLT2_sfc_thetae_126.txt.gz
Theta_e
338 341 343 343 344 344 343 343 344 345 346 346 346 345 344 346 346 347 347 346 345 343 342 340 340 339 338 335 334 334 332 332
337 339 341 343 344 341 341 342 342 343 344 343 342 342 342 343 344 345 345 345 344 342 340 339 339 336 335 333 332 333 330 331
338 339 340 342 343 343 341 342 342 341 342 341 339 342 341 341 341 342 343 343 342 341 339 337 336 334 334 333 332 328 327 330
336 337 338 339 341 343 342 344 344 344 343 341 340 338 339 340 340 340 341 340 340 339 338 336 334 332 331 332 328 327 326 328
334 335 337 338 339 340 340 342 342 341 342 342 341 336 337 338 335 338 337 338 336 335 334 332 330 331 328 327 327 327 326 327
333 334 334 336 338 338 338 338 339 339 339 339 339 339 336 334 335 333 333 333 332 331 329 329 328 327 326 325 326 326 326 326
331 333 333 335 336 337 337 337 337 339 339 337 339 337 337 335 332 332 332 331 330 328 327 326 326 325 325 325 325 325 326 326
330 331 333 334 334 335 335 336 336 336 336 338 337 338 337 336 332 331 329 330 328 328 327 325 324 325 323 324 325 325 325 325
329 331 331 332 332 333 334 334 335 333 334 337 337 337 336 335 333 330 329 327 327 326 324 323 323 323 323 323 324 324 324 324
331 332 331 331 332 331 331 332 333 332 333 335 335 335 335 332 332 331 327 326 326 325 323 321 321 322 323 324 325 324 324 324
333 332 330 331 331 331 330 330 330 330 330 332 334 335 332 331 330 328 328 327 325 325 322 322 323 324 323 324 325 325 326 327
334 335 333 331 331 331 331 331 332 332 331 332 332 334 334 331 330 328 329 329 327 324 325 324 325 325 325 324 325 326 326 326
330 334 335 333 331 330 330 329 331 332 333 333 332 333 333 333 332 328 329 328 328 328 327 324 324 326 323 322 323 325 324 325
328 331 334 334 334 332 329 331 332 332 334 333 333 333 333 333 333 330 329 328 327 327 327 323 325 326 321 319 315 317 322 324
322 328 331 334 335 331 325 326 328 329 331 332 333 333 333 333 333 331 330 330 328 327 328 326 322 325 323 319 311 308 314 321
317 322 324 327 330 330 326 328 326 327 330 332 334 334 334 334 333 332 331 331 327 327 328 328 325 321 323 320 317 313 308 308
310 311 312 317 322 326 326 322 324 322 325 327 327 331 332 333 332 331 331 332 330 327 327 327 326 324 322 320 316 315 315 313
303 304 305 307 310 312 315 316 317 322 323 320 321 326 330 331 332 332 332 332 331 328 328 328 326 325 324 321 318 317 313 312
300 301 301 302 303 305 305 306 310 312 317 323 323 324 326 329 330 331 331 330 329 329 327 327 326 325 323 321 322 320 317 316
298 298 297 299 301 301 300 301 303 305 307 310 316 322 324 326 329 330 331 330 328 327 327 326 325 325 323 322 321 320 318 317

GFSFLT2_sfc_thetae_129.txt.gz
Theta_e
350 350 348 344 344 344 343 343 344 345 346 346 347 346 346 347 348 348 348 347 345 343 342 341 341 339 337 335 335 336 342 342
347 348 349 350 350 341 341 341 342 343 344 343 342 342 343 344 344 346 346 345 343 342 340 339 339 338 335 333 333 335 341 341
344 346 348 349 347 347 342 342 341 341 343 342 340 349 349 349 344 343 344 343 341 340 339 338 336 335 335 333 333 339 340 341
341 343 345 346 343 345 348 348 348 348 349 349 350 349 349 347 345 341 342 340 340 339 338 336 337 343 340 334 340 339 339 340
338 341 344 343 342 343 344 346 346 347 348 348 349 348 348 347 349 347 349 342 344 340 340 341 342 342 341 341 340 339 339 340
338 340 341 342 342 341 342 341 343 343 344 345 345 345 346 347 346 348 347 346 345 344 343 342 341 339 341 340 339 339 338 337
335 337 338 338 340 340 340 340 341 341 342 342 344 342 342 343 345 346 346 345 344 343 341 340 339 339 339 338 337 337 338 338
335 334 335 336 337 340 339 339 340 341 341 341 341 341 342 340 342 344 345 345 344 342 340 338 338 338 338 337 337 337 337 337
333 334 333 334 336 339 339 338 338 338 339 341 340 341 341 340 338 341 344 344 344 342 341 339 337 337 336 336 336 336 336 335
333 335 334 333 334 336 338 339 338 338 337 338 340 340 341 339 336 337 343 343 342 340 339 337 336 335 335 335 335 335 335 335
332 336 336 336 336 335 335 336 335 336 336 336 338 338 338 337 335 336 341 341 339 339 336 337 333 332 333 330 330 330 334 334
336 334 335 337 337 337 336 333 333 334 333 335 336 335 336 335 339 337 340 338 336 336 335 335 334 334 328 326 328 329 331 335
337 335 335 335 335 334 334 331 333 334 337 339 338 337 334 336 339 339 338 334 334 333 335 333 330 330 326 325 326 329 328 332
336 337 336 334 333 335 337 336 336 336 337 338 338 339 338 338 337 336 335 333 333 332 332 329 330 330 325 323 320 324 326 328
332 337 337 337 336 336 336 337 336 335 334 334 336 338 339 340 338 336 335 335 332 331 332 333 327 327 329 328 320 318 322 326
330 335 338 339 339 337 335 332 330 333 334 334 335 338 338 338 339 337 336 335 334 332 333 334 333 325 327 326 324 325 319 317
324 330 334 337 339 338 336 336 338 338 336 333 335 335 334 333 332 332 334 334 335 334 332 332 335 333 328 324 323 320 320 319
313 314 311 314 322 330 335 333 332 331 333 330 332 333 326 324 324 325 332 333 333 334 334 333 333 335 332 329 324 320 318 319
306 307 305 305 305 305 308 312 317 324 329 329 330 328 328 325 326 328 331 333 334 334 332 332 332 331 331 329 327 327 323 322
299 301 300 301 302 303 304 304 307 308 312 314 322 327 329 331 330 331 332 333 333 332 331 332 332 332 332 332 327 327 325 321